| time (UTC) | temp F | wind direction | speed MPH | gust MPH | rain 1hr in | rain 24hr in | rain mn in | humidity % | barometer mb |
| 20260510130633 | 65 | 43 | 0.0 | 2.0 | 0.00 | 0.00 | 0.00 | 22 | 917.6 |
| 20260510130526 | 65 | 43 | 0.0 | 2.0 | 0.00 | 0.00 | 0.00 | 22 | 917.6 |
| 20260510125936 | 65 | 63 | 0.0 | 1.0 | 0.00 | 0.00 | 0.00 | 22 | 917.5 |
| 20260510125828 | 65 | 96 | 0.0 | 1.0 | 0.00 | 0.00 | 0.00 | 22 | 917.6 |
| 20260510125726 | 65 | 96 | 0.0 | 0.0 | 0.00 | 0.00 | 0.00 | 22 | 917.6 |
| 20260510125400 | 65 | 96 | 0.0 | 0.0 | 0.00 | 0.00 | 0.00 | 21 | 917.5 |
| 20260510125257 | 65 | 96 | 0.0 | 0.0 | 0.00 | 0.00 | 0.00 | 21 | 917.6 |
| 20260510125150 | 65 | 96 | 0.0 | 0.0 | 0.00 | 0.00 | 0.00 | 21 | 917.4 |
| 20260510125043 | 65 | 96 | 0.0 | 0.0 | 0.00 | 0.00 | 0.00 | 22 | 917.5 |
| 20260510124940 | 65 | 96 | 0.0 | 0.0 | 0.00 | 0.00 | 0.00 | 22 | 917.5 |
| 20260510124838 | 65 | 96 | 0.0 | 0.0 | 0.00 | 0.00 | 0.00 | 21 | 917.4 |
| 20260510124514 | 65 | 96 | 0.0 | 0.0 | 0.00 | 0.00 | 0.00 | 21 | 917.5 |
| 20260510124407 | 65 | 96 | 0.0 | 0.0 | 0.00 | 0.00 | 0.00 | 21 | 917.5 |
| 20260510124302 | 65 | 96 | 0.0 | 0.0 | 0.00 | 0.00 | 0.00 | 21 | 917.3 |
| 20260510124200 | 65 | 96 | 0.0 | 1.0 | 0.00 | 0.00 | 0.00 | 21 | 917.3 |
| 20260510124057 | 65 | 96 | 0.0 | 1.0 | 0.00 | 0.00 | 0.00 | 21 | 917.3 |
| 20260510123954 | 65 | 96 | 0.0 | 1.0 | 0.00 | 0.00 | 0.00 | 21 | 917.2 |
| 20260510123851 | 65 | 96 | 0.0 | 1.0 | 0.00 | 0.00 | 0.00 | 21 | 917.3 |
| 20260510123749 | 65 | 96 | 0.0 | 1.0 | 0.00 | 0.00 | 0.00 | 21 | 917.2 |
| 20260510123643 | 65 | 96 | 0.0 | 0.0 | 0.00 | 0.00 | 0.00 | 21 | 917.3 |
| 20260510123536 | 65 | 96 | 0.0 | 0.0 | 0.00 | 0.00 | 0.00 | 21 | 917.3 |
| 20260510123429 | 65 | 96 | 0.0 | 0.0 | 0.00 | 0.00 | 0.00 | 21 | 917.3 |
| 20260510123324 | 65 | 96 | 0.0 | 0.0 | 0.00 | 0.00 | 0.00 | 21 | 917.2 |
| 20260510123221 | 65 | 96 | 0.0 | 0.0 | 0.00 | 0.00 | 0.00 | 21 | 917.3 |
| 20260510123118 | 65 | 96 | 0.0 | 0.0 | 0.00 | 0.00 | 0.00 | 21 | 917.4 |
| 20260510123011 | 65 | 96 | 0.0 | 0.0 | 0.00 | 0.00 | 0.00 | 21 | 917.3 |
| 20260510122904 | 65 | 96 | 0.0 | 1.0 | 0.00 | 0.00 | 0.00 | 21 | 917.2 |
| 20260510122541 | 66 | 96 | 0.0 | 0.0 | 0.00 | 0.00 | 0.00 | 20 | 917.2 |
| 20260510122435 | 66 | 96 | 0.0 | 0.0 | 0.00 | 0.00 | 0.00 | 20 | 917.2 |
| 20260510121848 | 66 | 175 | 0.0 | 0.0 | 0.00 | 0.00 | 0.00 | 20 | 917.1 |
| 20260510121740 | 66 | 175 | 0.0 | 0.0 | 0.00 | 0.00 | 0.00 | 21 | 917.2 |
| 20260510121635 | 66 | 175 | 0.0 | 0.0 | 0.00 | 0.00 | 0.00 | 21 | 917.1 |
| 20260510121529 | 66 | 175 | 0.0 | 0.0 | 0.00 | 0.00 | 0.00 | 21 | 917.1 |
| 20260510121426 | 66 | 175 | 0.0 | 0.0 | 0.00 | 0.00 | 0.00 | 21 | 917.1 |
| 20260510121104 | 66 | 175 | 0.0 | 3.0 | 0.00 | 0.00 | 0.00 | 20 | 917.2 |
| 20260510120956 | 66 | 175 | 0.0 | 3.0 | 0.00 | 0.00 | 0.00 | 20 | 917.1 |
| 20260510120851 | 66 | 175 | 1.0 | 4.0 | 0.00 | 0.00 | 0.00 | 20 | 917.1 |
| 20260510120748 | 66 | 175 | 1.0 | 4.0 | 0.00 | 0.00 | 0.00 | 20 | 917.1 |
| 20260510120645 | 66 | 145 | 1.0 | 4.0 | 0.00 | 0.00 | 0.00 | 20 | 917.1 |
| 20260510120541 | 66 | 141 | 1.0 | 4.0 | 0.00 | 0.00 | 0.00 | 20 | 917.1 |
| 20260510120435 | 66 | 141 | 2.0 | 4.0 | 0.00 | 0.00 | 0.00 | 20 | 917.1 |
| 20260510120111 | 65 | 12 | 1.0 | 4.0 | 0.00 | 0.00 | 0.00 | 20 | 917.1 |
| 20260510120008 | 65 | 355 | 2.0 | 4.0 | 0.00 | 0.00 | 0.00 | 20 | 916.9 |
| 20260510115904 | 65 | 0 | 1.0 | 4.0 | 0.00 | 0.00 | 0.00 | 20 | 916.9 |
| 20260510115758 | 65 | 9 | 1.0 | 4.0 | 0.00 | 0.00 | 0.00 | 20 | 917.0 |
| 20260510115650 | 65 | 355 | 1.0 | 4.0 | 0.00 | 0.00 | 0.00 | 20 | 917.0 |
| 20260510115545 | 65 | 349 | 1.0 | 4.0 | 0.00 | 0.00 | 0.00 | 20 | 917.0 |
| 20260510115001 | 66 | 349 | 1.0 | 4.0 | 0.00 | 0.00 | 0.00 | 20 | 917.1 |
| 20260510114857 | 66 | 345 | 1.0 | 3.0 | 0.00 | 0.00 | 0.00 | 20 | 917.1 |
| 20260510114750 | 66 | 346 | 0.0 | 2.0 | 0.00 | 0.00 | 0.00 | 20 | 917.1 |
| 20260510114644 | 66 | 340 | 0.0 | 2.0 | 0.00 | 0.00 | 0.00 | 19 | 917.1 |
| 20260510114059 | 67 | 326 | 0.0 | 1.0 | 0.00 | 0.00 | 0.00 | 19 | 917.1 |
| 20260510113957 | 67 | 325 | 0.0 | 1.0 | 0.00 | 0.00 | 0.00 | 19 | 917.1 |
| 20260510113849 | 67 | 258 | 0.0 | 1.0 | 0.00 | 0.00 | 0.00 | 19 | 917.1 |
| 20260510113742 | 67 | 202 | 0.0 | 0.0 | 0.00 | 0.00 | 0.00 | 19 | 917.1 |
| 20260510113640 | 67 | 194 | 0.0 | 0.0 | 0.00 | 0.00 | 0.00 | 19 | 917.1 |
| 20260510113534 | 67 | 180 | 0.0 | 0.0 | 0.00 | 0.00 | 0.00 | 19 | 917.1 |
| 20260510113428 | 67 | 180 | 0.0 | 0.0 | 0.00 | 0.00 | 0.00 | 19 | 917.1 |
| 20260510113321 | 67 | 180 | 0.0 | 0.0 | 0.00 | 0.00 | 0.00 | 20 | 917.1 |
| 20260510113217 | 67 | 180 | 0.0 | 0.0 | 0.00 | 0.00 | 0.00 | 20 | 917.0 |
| 20260510113110 | 67 | 180 | 0.0 | 1.0 | 0.00 | 0.00 | 0.00 | 19 | 917.0 |
| 20260510113003 | 67 | 180 | 0.0 | 1.0 | 0.00 | 0.00 | 0.00 | 19 | 917.0 |
| 20260510112635 | 68 | 161 | 0.0 | 0.0 | 0.00 | 0.00 | 0.00 | 19 | 917.0 |
| 20260510112529 | 68 | 161 | 0.0 | 0.0 | 0.00 | 0.00 | 0.00 | 19 | 917.0 |
| 20260510112426 | 68 | 161 | 0.0 | 0.0 | 0.00 | 0.00 | 0.00 | 19 | 917.0 |
| 20260510112319 | 68 | 161 | 0.0 | 0.0 | 0.00 | 0.00 | 0.00 | 19 | 917.0 |
| 20260510112212 | 68 | 161 | 0.0 | 0.0 | 0.00 | 0.00 | 0.00 | 19 | 917.0 |
| 20260510112109 | 68 | 161 | 0.0 | 0.0 | 0.00 | 0.00 | 0.00 | 19 | 917.0 |
| 20260510112007 | 68 | 161 | 0.0 | 0.0 | 0.00 | 0.00 | 0.00 | 19 | 917.0 |
| 20260510111900 | 68 | 161 | 0.0 | 2.0 | 0.00 | 0.00 | 0.00 | 19 | 917.0 |
| 20260510111754 | 68 | 161 | 0.0 | 2.0 | 0.00 | 0.00 | 0.00 | 19 | 917.0 |
| 20260510111648 | 68 | 133 | 0.0 | 2.0 | 0.00 | 0.00 | 0.00 | 19 | 916.9 |
| 20260510111545 | 68 | 113 | 0.0 | 2.0 | 0.00 | 0.00 | 0.00 | 19 | 916.9 |
| 20260510111439 | 68 | 113 | 0.0 | 2.0 | 0.00 | 0.00 | 0.00 | 19 | 916.9 |
| 20260510111333 | 68 | 113 | 0.0 | 2.0 | 0.00 | 0.00 | 0.00 | 19 | 916.9 |
| 20260510111009 | 68 | 99 | 0.0 | 2.0 | 0.00 | 0.00 | 0.00 | 19 | 916.8 |
| 20260510110906 | 68 | 45 | 1.0 | 2.0 | 0.00 | 0.00 | 0.00 | 19 | 916.8 |
| 20260510110803 | 67 | 45 | 1.0 | 2.0 | 0.00 | 0.00 | 0.00 | 19 | 916.8 |
| 20260510110659 | 67 | 42 | 0.0 | 2.0 | 0.00 | 0.00 | 0.00 | 19 | 916.7 |
| 20260510110557 | 67 | 28 | 0.0 | 2.0 | 0.00 | 0.00 | 0.00 | 19 | 916.7 |
| 20260510110455 | 67 | 40 | 0.0 | 2.0 | 0.00 | 0.00 | 0.00 | 19 | 916.7 |
| 20260510110352 | 67 | 15 | 0.0 | 2.0 | 0.00 | 0.00 | 0.00 | 19 | 916.8 |
| 20260510110248 | 67 | 18 | 0.0 | 2.0 | 0.00 | 0.00 | 0.00 | 19 | 916.7 |
| 20260510110143 | 67 | 5 | 0.0 | 2.0 | 0.00 | 0.00 | 0.00 | 19 | 916.7 |
| 20260510105821 | 67 | 336 | 0.0 | 2.0 | 0.00 | 0.00 | 0.00 | 19 | 916.7 |
| 20260510105717 | 68 | 336 | 0.0 | 2.0 | 0.00 | 0.00 | 0.00 | 19 | 916.8 |
| 20260510105612 | 68 | 336 | 1.0 | 2.0 | 0.00 | 0.00 | 0.00 | 19 | 916.7 |
| 20260510105508 | 68 | 336 | 1.0 | 2.0 | 0.00 | 0.00 | 0.00 | 19 | 916.7 |
| 20260510105400 | 68 | 336 | 0.0 | 2.0 | 0.00 | 0.00 | 0.00 | 19 | 916.7 |
| 20260510105258 | 68 | 336 | 0.0 | 2.0 | 0.00 | 0.00 | 0.00 | 19 | 916.7 |
| 20260510105152 | 68 | 339 | 0.0 | 2.0 | 0.00 | 0.00 | 0.00 | 19 | 916.8 |
| 20260510105050 | 68 | 348 | 0.0 | 2.0 | 0.00 | 0.00 | 0.00 | 19 | 916.8 |
| 20260510104945 | 68 | 332 | 0.0 | 3.0 | 0.00 | 0.00 | 0.00 | 19 | 916.8 |
| 20260510104840 | 68 | 330 | 0.0 | 3.0 | 0.00 | 0.00 | 0.00 | 19 | 916.8 |
| 20260510104519 | 68 | 280 | 0.0 | 3.0 | 0.00 | 0.00 | 0.00 | 19 | 916.8 |
| 20260510104412 | 68 | 280 | 0.0 | 3.0 | 0.00 | 0.00 | 0.00 | 19 | 916.8 |
| 20260510104305 | 68 | 280 | 0.0 | 3.0 | 0.00 | 0.00 | 0.00 | 19 | 916.8 |
| 20260510104158 | 68 | 280 | 0.0 | 3.0 | 0.00 | 0.00 | 0.00 | 19 | 916.8 |
| 20260510103839 | 69 | 245 | 0.0 | 2.0 | 0.00 | 0.00 | 0.00 | 19 | 916.8 |
| 20260510103736 | 69 | 245 | 0.0 | 2.0 | 0.00 | 0.00 | 0.00 | 19 | 916.8 |
| 20260510103631 | 69 | 245 | 0.0 | 2.0 | 0.00 | 0.00 | 0.00 | 20 | 916.8 |
| 20260510103525 | 69 | 245 | 0.0 | 2.0 | 0.00 | 0.00 | 0.00 | 19 | 916.8 |
| 20260510103157 | 69 | 67 | 0.0 | 2.0 | 0.00 | 0.00 | 0.00 | 19 | 916.8 |
| 20260510103054 | 69 | 69 | 0.0 | 2.0 | 0.00 | 0.00 | 0.00 | 19 | 916.8 |
| 20260510102948 | 69 | 73 | 0.0 | 1.0 | 0.00 | 0.00 | 0.00 | 19 | 916.8 |
| 20260510102841 | 69 | 77 | 1.0 | 0.0 | 0.00 | 0.00 | 0.00 | 19 | 916.7 |
| 20260510102735 | 69 | 77 | 1.0 | 0.0 | 0.00 | 0.00 | 0.00 | 19 | 916.8 |
| 20260510102629 | 69 | 77 | 1.0 | 4.0 | 0.00 | 0.00 | 0.00 | 19 | 916.7 |
| 20260510102521 | 69 | 77 | 1.0 | 4.0 | 0.00 | 0.00 | 0.00 | 19 | 916.7 |
| 20260510102419 | 69 | 71 | 2.0 | 4.0 | 0.00 | 0.00 | 0.00 | 19 | 916.7 |
| 20260510102315 | 69 | 79 | 2.0 | 4.0 | 0.00 | 0.00 | 0.00 | 19 | 916.7 |
| 20260510102211 | 69 | 63 | 2.0 | 4.0 | 0.00 | 0.00 | 0.00 | 18 | 916.7 |
| 20260510102105 | 69 | 35 | 2.0 | 4.0 | 0.00 | 0.00 | 0.00 | 18 | 916.8 |
| 20260510102002 | 69 | 24 | 2.0 | 4.0 | 0.00 | 0.00 | 0.00 | 18 | 916.8 |
| 20260510101856 | 69 | 23 | 2.0 | 4.0 | 0.00 | 0.00 | 0.00 | 18 | 916.7 |
| 20260510101750 | 69 | 11 | 2.0 | 4.0 | 0.00 | 0.00 | 0.00 | 18 | 916.8 |
| 20260510101644 | 69 | 355 | 2.0 | 4.0 | 0.00 | 0.00 | 0.00 | 18 | 916.7 |
| 20260510101537 | 69 | 0 | 2.0 | 4.0 | 0.00 | 0.00 | 0.00 | 18 | 916.7 |
| 20260510100953 | 70 | 11 | 1.0 | 3.0 | 0.00 | 0.00 | 0.00 | 18 | 916.7 |
| 20260510100849 | 70 | 17 | 1.0 | 3.0 | 0.00 | 0.00 | 0.00 | 18 | 916.7 |
| 20260510100522 | 70 | 49 | 0.0 | 3.0 | 0.00 | 0.00 | 0.00 | 18 | 916.7 |
| 20260510100418 | 70 | 48 | 0.0 | 3.0 | 0.00 | 0.00 | 0.00 | 18 | 916.7 |
| 20260510100314 | 71 | 50 | 0.0 | 3.0 | 0.00 | 0.00 | 0.00 | 18 | 916.6 |
| 20260510100209 | 71 | 25 | 0.0 | 2.0 | 0.00 | 0.00 | 0.00 | 18 | 916.6 |
| 20260510100106 | 71 | 26 | 0.0 | 2.0 | 0.00 | 0.00 | 0.00 | 18 | 916.6 |
| 20260510100003 | 71 | 19 | 0.0 | 2.0 | 0.00 | 0.00 | 0.00 | 18 | 916.6 |
| 20260510095640 | 72 | 218 | 0.0 | 0.0 | 0.00 | 0.00 | 0.00 | 18 | 916.5 |
| 20260510095537 | 72 | 218 | 0.0 | 0.0 | 0.00 | 0.00 | 0.00 | 17 | 916.6 |
| 20260510095431 | 72 | 218 | 0.0 | 0.0 | 0.00 | 0.00 | 0.00 | 17 | 916.5 |
| 20260510095327 | 72 | 218 | 0.0 | 0.0 | 0.00 | 0.00 | 0.00 | 17 | 916.5 |
| 20260510095223 | 72 | 218 | 0.0 | 0.0 | 0.00 | 0.00 | 0.00 | 17 | 916.6 |
| 20260510095118 | 72 | 218 | 0.0 | 0.0 | 0.00 | 0.00 | 0.00 | 17 | 916.6 |
| 20260510095015 | 73 | 218 | 0.0 | 3.0 | 0.00 | 0.00 | 0.00 | 17 | 916.6 |
| 20260510094911 | 73 | 218 | 0.0 | 3.0 | 0.00 | 0.00 | 0.00 | 17 | 916.6 |
| 20260510094809 | 73 | 218 | 0.0 | 3.0 | 0.00 | 0.00 | 0.00 | 17 | 916.5 |
| 20260510094706 | 73 | 218 | 0.0 | 3.0 | 0.00 | 0.00 | 0.00 | 16 | 916.4 |
| 20260510094601 | 73 | 223 | 0.0 | 3.0 | 0.00 | 0.00 | 0.00 | 16 | 916.4 |
| 20260510094454 | 73 | 171 | 0.0 | 3.0 | 0.00 | 0.00 | 0.00 | 16 | 916.4 |
| 20260510094127 | 74 | 265 | 0.0 | 2.0 | 0.00 | 0.00 | 0.00 | 15 | 916.3 |
| 20260510094023 | 74 | 265 | 0.0 | 2.0 | 0.00 | 0.00 | 0.00 | 15 | 916.3 |
| 20260510093917 | 74 | 355 | 0.0 | 2.0 | 0.00 | 0.00 | 0.00 | 15 | 916.3 |
| 20260510093811 | 74 | 355 | 0.0 | 2.0 | 0.00 | 0.00 | 0.00 | 15 | 916.4 |
| 20260510093706 | 74 | 350 | 0.0 | 2.0 | 0.00 | 0.00 | 0.00 | 15 | 916.3 |
| 20260510093604 | 74 | 355 | 0.0 | 2.0 | 0.00 | 0.00 | 0.00 | 15 | 916.3 |
| 20260510093501 | 74 | 339 | 0.0 | 2.0 | 0.00 | 0.00 | 0.00 | 15 | 916.3 |
| 20260510093356 | 74 | 296 | 0.0 | 2.0 | 0.00 | 0.00 | 0.00 | 15 | 916.3 |
| 20260510093252 | 74 | 296 | 0.0 | 2.0 | 0.00 | 0.00 | 0.00 | 15 | 916.3 |
| 20260510092707 | 75 | 259 | 0.0 | 2.0 | 0.00 | 0.00 | 0.00 | 15 | 916.2 |
| 20260510092344 | 75 | 220 | 0.0 | 1.0 | 0.00 | 0.00 | 0.00 | 15 | 916.2 |
| 20260510092239 | 75 | 88 | 0.0 | 0.0 | 0.00 | 0.00 | 0.00 | 15 | 916.2 |
| 20260510092136 | 75 | 88 | 0.0 | 0.0 | 0.00 | 0.00 | 0.00 | 15 | 916.1 |
| 20260510092033 | 75 | 88 | 0.0 | 0.0 | 0.00 | 0.00 | 0.00 | 15 | 916.2 |
| 20260510091925 | 75 | 88 | 0.0 | 0.0 | 0.00 | 0.00 | 0.00 | 15 | 916.2 |
| 20260510091820 | 74 | 88 | 0.0 | 4.0 | 0.00 | 0.00 | 0.00 | 15 | 916.1 |
| 20260510091714 | 74 | 88 | 1.0 | 4.0 | 0.00 | 0.00 | 0.00 | 15 | 916.2 |
| 20260510091608 | 74 | 88 | 1.0 | 4.0 | 0.00 | 0.00 | 0.00 | 15 | 916.2 |
| 20260510091503 | 74 | 91 | 1.0 | 4.0 | 0.00 | 0.00 | 0.00 | 15 | 916.2 |
| 20260510091356 | 74 | 81 | 1.0 | 4.0 | 0.00 | 0.00 | 0.00 | 15 | 916.2 |
| 20260510091252 | 74 | 80 | 2.0 | 4.0 | 0.00 | 0.00 | 0.00 | 15 | 916.2 |
| 20260510091148 | 74 | 80 | 2.0 | 4.0 | 0.00 | 0.00 | 0.00 | 15 | 916.2 |
| 20260510090824 | 73 | 37 | 2.0 | 4.0 | 0.00 | 0.00 | 0.00 | 15 | 916.2 |
| 20260510090721 | 73 | 29 | 2.0 | 4.0 | 0.00 | 0.00 | 0.00 | 15 | 916.1 |
| 20260510090617 | 73 | 29 | 2.0 | 4.0 | 0.00 | 0.00 | 0.00 | 15 | 916.1 |
| 20260510090036 | 73 | 13 | 1.0 | 4.0 | 0.00 | 0.00 | 0.00 | 16 | 916.1 |
| 20260510085710 | 72 | 15 | 0.0 | 2.0 | 0.00 | 0.00 | 0.00 | 16 | 916.0 |
| 20260510085604 | 72 | 34 | 0.0 | 2.0 | 0.00 | 0.00 | 0.00 | 16 | 916.0 |
| 20260510085502 | 72 | 29 | 0.0 | 1.0 | 0.00 | 0.00 | 0.00 | 16 | 916.0 |
| 20260510085138 | 72 | 20 | 0.0 | 1.0 | 0.00 | 0.00 | 0.00 | 16 | 916.0 |
| 20260510085034 | 72 | 36 | 0.0 | 1.0 | 0.00 | 0.00 | 0.00 | 16 | 916.0 |
| 20260510084929 | 72 | 19 | 0.0 | 1.0 | 0.00 | 0.00 | 0.00 | 16 | 915.9 |
| 20260510084822 | 72 | 13 | 0.0 | 1.0 | 0.00 | 0.00 | 0.00 | 16 | 916.0 |
| 20260510084719 | 72 | 34 | 0.0 | 1.0 | 0.00 | 0.00 | 0.00 | 16 | 915.9 |
| 20260510084613 | 72 | 63 | 0.0 | 1.0 | 0.00 | 0.00 | 0.00 | 16 | 915.9 |
| 20260510084506 | 72 | 63 | 0.0 | 1.0 | 0.00 | 0.00 | 0.00 | 16 | 915.9 |
| 20260510084359 | 72 | 63 | 0.0 | 1.0 | 0.00 | 0.00 | 0.00 | 16 | 915.8 |
| 20260510083817 | 73 | 53 | 0.0 | 0.0 | 0.00 | 0.00 | 0.00 | 16 | 915.9 |
| 20260510083714 | 73 | 53 | 0.0 | 0.0 | 0.00 | 0.00 | 0.00 | 16 | 915.9 |
| 20260510083607 | 73 | 53 | 0.0 | 1.0 | 0.00 | 0.00 | 0.00 | 16 | 915.9 |
| 20260510083242 | 73 | 46 | 0.0 | 1.0 | 0.00 | 0.00 | 0.00 | 16 | 915.9 |
| 20260510083137 | 73 | 41 | 0.0 | 1.0 | 0.00 | 0.00 | 0.00 | 16 | 915.9 |
| 20260510083031 | 73 | 5 | 0.0 | 0.0 | 0.00 | 0.00 | 0.00 | 16 | 915.9 |
| 20260510082926 | 73 | 5 | 0.0 | 0.0 | 0.00 | 0.00 | 0.00 | 16 | 915.9 |
| 20260510082822 | 73 | 5 | 0.0 | 0.0 | 0.00 | 0.00 | 0.00 | 16 | 916.0 |
| 20260510082720 | 73 | 5 | 0.0 | 0.0 | 0.00 | 0.00 | 0.00 | 16 | 915.9 |
| 20260510082613 | 73 | 5 | 0.0 | 0.0 | 0.00 | 0.00 | 0.00 | 16 | 915.9 |
| 20260510082506 | 73 | 5 | 0.0 | 0.0 | 0.00 | 0.00 | 0.00 | 16 | 915.9 |
| 20260510082401 | 73 | 5 | 0.0 | 0.0 | 0.00 | 0.00 | 0.00 | 16 | 915.9 |
| 20260510082257 | 73 | 5 | 0.0 | 0.0 | 0.00 | 0.00 | 0.00 | 16 | 915.9 |
| 20260510082155 | 73 | 5 | 0.0 | 0.0 | 0.00 | 0.00 | 0.00 | 16 | 915.9 |
| 20260510082047 | 73 | 5 | 0.0 | 0.0 | 0.00 | 0.00 | 0.00 | 16 | 915.8 |
| 20260510081942 | 73 | 5 | 0.0 | 0.0 | 0.00 | 0.00 | 0.00 | 16 | 915.9 |
| 20260510081834 | 73 | 5 | 0.0 | 0.0 | 0.00 | 0.00 | 0.00 | 16 | 915.9 |
| 20260510081729 | 73 | 5 | 0.0 | 0.0 | 0.00 | 0.00 | 0.00 | 16 | 915.9 |
| 20260510081627 | 73 | 5 | 0.0 | 1.0 | 0.00 | 0.00 | 0.00 | 16 | 916.0 |
| 20260510081519 | 73 | 5 | 0.0 | 1.0 | 0.00 | 0.00 | 0.00 | 16 | 915.9 |
| 20260510081415 | 73 | 15 | 0.0 | 1.0 | 0.00 | 0.00 | 0.00 | 16 | 915.9 |
| 20260510081312 | 74 | 24 | 0.0 | 0.0 | 0.00 | 0.00 | 0.00 | 16 | 916.0 |
| 20260510081204 | 74 | 24 | 0.0 | 0.0 | 0.00 | 0.00 | 0.00 | 16 | 916.0 |
| 20260510081100 | 74 | 24 | 0.0 | 0.0 | 0.00 | 0.00 | 0.00 | 16 | 916.0 |
| 20260510080957 | 74 | 24 | 0.0 | 0.0 | 0.00 | 0.00 | 0.00 | 16 | 916.1 |
| 20260510080850 | 74 | 24 | 0.0 | 2.0 | 0.00 | 0.00 | 0.00 | 16 | 916.0 |
| 20260510080744 | 74 | 24 | 0.0 | 2.0 | 0.00 | 0.00 | 0.00 | 16 | 916.0 |
| 20260510080418 | 74 | 21 | 0.0 | 2.0 | 0.00 | 0.00 | 0.00 | 16 | 916.0 |
| 20260510080311 | 74 | 28 | 0.0 | 2.0 | 0.00 | 0.00 | 0.00 | 16 | 916.0 |
| 20260510080209 | 74 | 28 | 0.0 | 2.0 | 0.00 | 0.00 | 0.00 | 16 | 916.1 |
| 20260510075849 | 74 | 29 | 0.0 | 2.0 | 0.00 | 0.00 | 0.00 | 16 | 916.0 |
| 20260510075741 | 74 | 40 | 0.0 | 2.0 | 0.00 | 0.00 | 0.00 | 15 | 916.1 |
| 20260510075416 | 74 | 64 | 0.0 | 2.0 | 0.00 | 0.00 | 0.00 | 15 | 916.0 |
| 20260510075313 | 75 | 63 | 0.0 | 2.0 | 0.00 | 0.00 | 0.00 | 15 | 916.0 |
| 20260510075204 | 75 | 63 | 0.0 | 2.0 | 0.00 | 0.00 | 0.00 | 15 | 916.0 |
| 20260510075100 | 75 | 61 | 0.0 | 2.0 | 0.00 | 0.00 | 0.00 | 15 | 916.0 |
| 20260510074952 | 75 | 94 | 0.0 | 1.0 | 0.00 | 0.00 | 0.00 | 15 | 916.0 |
| 20260510074846 | 75 | 100 | 0.0 | 1.0 | 0.00 | 0.00 | 0.00 | 15 | 916.0 |
| 20260510074517 | 76 | 181 | 0.0 | 0.0 | 0.00 | 0.00 | 0.00 | 15 | 916.0 |
| 20260510074411 | 76 | 181 | 0.0 | 0.0 | 0.00 | 0.00 | 0.00 | 15 | 916.0 |
| 20260510074306 | 76 | 181 | 0.0 | 1.0 | 0.00 | 0.00 | 0.00 | 14 | 916.0 |
| 20260510074200 | 76 | 181 | 0.0 | 1.0 | 0.00 | 0.00 | 0.00 | 14 | 916.0 |
| 20260510074056 | 76 | 181 | 0.0 | 0.0 | 0.00 | 0.00 | 0.00 | 14 | 916.0 |
| 20260510073949 | 76 | 181 | 0.0 | 0.0 | 0.00 | 0.00 | 0.00 | 14 | 916.0 |
| 20260510073620 | 77 | 181 | 0.0 | 0.0 | 0.00 | 0.00 | 0.00 | 14 | 916.0 |
| 20260510073514 | 77 | 181 | 0.0 | 0.0 | 0.00 | 0.00 | 0.00 | 14 | 916.0 |
| 20260510073149 | 77 | 181 | 0.0 | 0.0 | 0.00 | 0.00 | 0.00 | 14 | 916.0 |
| 20260510073046 | 77 | 181 | 0.0 | 0.0 | 0.00 | 0.00 | 0.00 | 14 | 915.9 |
| 20260510072939 | 77 | 181 | 0.0 | 0.0 | 0.00 | 0.00 | 0.00 | 14 | 916.0 |
| 20260510072834 | 77 | 181 | 0.0 | 0.0 | 0.00 | 0.00 | 0.00 | 14 | 916.0 |
| 20260510072728 | 78 | 181 | 0.0 | 1.0 | 0.00 | 0.00 | 0.00 | 14 | 916.0 |
| 20260510072622 | 78 | 196 | 0.0 | 0.0 | 0.00 | 0.00 | 0.00 | 14 | 916.0 |
| 20260510072517 | 78 | 201 | 0.0 | 2.0 | 0.00 | 0.00 | 0.00 | 14 | 916.0 |
| 20260510072409 | 78 | 201 | 0.0 | 2.0 | 0.00 | 0.00 | 0.00 | 14 | 915.9 |
| 20260510072044 | 78 | 200 | 0.0 | 2.0 | 0.00 | 0.00 | 0.00 | 13 | 916.0 |
| 20260510071719 | 79 | 202 | 0.0 | 1.0 | 0.00 | 0.00 | 0.00 | 13 | 915.9 |
| 20260510071354 | 79 | 175 | 0.0 | 0.0 | 0.00 | 0.00 | 0.00 | 13 | 915.9 |
| 20260510071249 | 79 | 155 | 0.0 | 0.0 | 0.00 | 0.00 | 0.00 | 13 | 915.9 |
| 20260510071142 | 80 | 155 | 0.0 | 0.0 | 0.00 | 0.00 | 0.00 | 13 | 915.9 |
| 20260510071036 | 80 | 155 | 0.0 | 0.0 | 0.00 | 0.00 | 0.00 | 13 | 915.9 |
| 20260510070929 | 80 | 155 | 0.0 | 0.0 | 0.00 | 0.00 | 0.00 | 13 | 915.9 |
| 20260510070824 | 80 | 155 | 0.0 | 0.0 | 0.00 | 0.00 | 0.00 | 13 | 915.9 |
| 20260510070720 | 80 | 155 | 0.0 | 0.0 | 0.00 | 0.00 | 0.00 | 13 | 915.9 |
| 20260510070616 | 80 | 155 | 0.0 | 0.0 | 0.00 | 0.00 | 0.00 | 13 | 915.9 |
| 20260510070246 | 80 | 155 | 0.0 | 1.0 | 0.00 | 0.00 | 0.00 | 13 | 915.9 |
| 20260510070139 | 81 | 155 | 0.0 | 0.0 | 0.00 | 0.00 | 0.00 | 13 | 915.9 |
| 20260510070033 | 81 | 155 | 0.0 | 0.0 | 0.00 | 0.00 | 0.00 | 13 | 915.9 |
| 20260510065929 | 81 | 155 | 0.0 | 6.0 | 0.00 | 0.00 | 0.00 | 13 | 915.9 |
| 20260510065607 | 81 | 155 | 0.0 | 6.0 | 0.00 | 0.00 | 0.00 | 12 | 915.8 |
| 20260510065504 | 81 | 155 | 0.0 | 6.0 | 0.00 | 0.00 | 0.00 | 12 | 915.9 |
| 20260510065356 | 81 | 154 | 1.0 | 6.0 | 0.00 | 0.00 | 0.00 | 12 | 915.9 |
| 20260510065253 | 81 | 215 | 1.0 | 6.0 | 0.00 | 0.00 | 0.00 | 12 | 915.9 |
| 20260510065148 | 82 | 215 | 1.0 | 6.0 | 0.00 | 0.00 | 0.00 | 12 | 915.9 |
| 20260510064823 | 82 | 218 | 2.0 | 7.0 | 0.00 | 0.00 | 0.00 | 12 | 915.8 |
| 20260510064457 | 82 | 22 | 3.0 | 7.0 | 0.00 | 0.00 | 0.00 | 12 | 915.8 |
| 20260510064351 | 82 | 41 | 3.0 | 7.0 | 0.00 | 0.00 | 0.00 | 12 | 915.8 |
| 20260510064248 | 82 | 355 | 3.0 | 7.0 | 0.00 | 0.00 | 0.00 | 12 | 915.8 |
| 20260510064145 | 82 | 28 | 3.0 | 7.0 | 0.00 | 0.00 | 0.00 | 12 | 915.7 |
| 20260510063821 | 82 | 28 | 3.0 | 7.0 | 0.00 | 0.00 | 0.00 | 12 | 915.7 |
| 20260510063454 | 82 | 13 | 3.0 | 7.0 | 0.00 | 0.00 | 0.00 | 12 | 915.6 |
| 20260510063351 | 82 | 34 | 3.0 | 7.0 | 0.00 | 0.00 | 0.00 | 12 | 915.6 |
| 20260510063245 | 82 | 10 | 3.0 | 7.0 | 0.00 | 0.00 | 0.00 | 12 | 915.6 |
| 20260510063138 | 82 | 14 | 3.0 | 7.0 | 0.00 | 0.00 | 0.00 | 12 | 915.6 |
| 20260510063032 | 82 | 31 | 3.0 | 7.0 | 0.00 | 0.00 | 0.00 | 12 | 915.6 |
| 20260510062927 | 82 | 25 | 3.0 | 6.0 | 0.00 | 0.00 | 0.00 | 12 | 915.5 |
| 20260510062824 | 82 | 38 | 3.0 | 6.0 | 0.00 | 0.00 | 0.00 | 12 | 915.5 |
| 20260510062717 | 82 | 5 | 3.0 | 8.0 | 0.00 | 0.00 | 0.00 | 12 | 915.6 |
| 20260510062615 | 82 | 24 | 3.0 | 8.0 | 0.00 | 0.00 | 0.00 | 12 | 915.5 |
| 20260510062250 | 82 | 17 | 2.0 | 8.0 | 0.00 | 0.00 | 0.00 | 12 | 915.4 |
| 20260510062146 | 82 | 33 | 2.0 | 8.0 | 0.00 | 0.00 | 0.00 | 12 | 915.4 |
| 20260510062041 | 82 | 19 | 3.0 | 8.0 | 0.00 | 0.00 | 0.00 | 12 | 915.5 |
| 20260510061933 | 82 | 19 | 3.0 | 8.0 | 0.00 | 0.00 | 0.00 | 12 | 915.5 |
| 20260510061830 | 82 | 351 | 3.0 | 8.0 | 0.00 | 0.00 | 0.00 | 12 | 915.5 |
| 20260510061724 | 82 | 5 | 3.0 | 8.0 | 0.00 | 0.00 | 0.00 | 12 | 915.5 |
| 20260510061617 | 82 | 355 | 3.0 | 8.0 | 0.00 | 0.00 | 0.00 | 12 | 915.5 |
| 20260510061510 | 82 | 26 | 3.0 | 8.0 | 0.00 | 0.00 | 0.00 | 12 | 915.5 |
| 20260510061404 | 82 | 5 | 3.0 | 8.0 | 0.00 | 0.00 | 0.00 | 12 | 915.4 |
| 20260510061302 | 82 | 33 | 4.0 | 8.0 | 0.00 | 0.00 | 0.00 | 12 | 915.5 |
| 20260510061156 | 82 | 30 | 4.0 | 8.0 | 0.00 | 0.00 | 0.00 | 12 | 915.5 |
| 20260510061052 | 82 | 10 | 3.0 | 8.0 | 0.00 | 0.00 | 0.00 | 12 | 915.5 |
| 20260510060950 | 82 | 26 | 3.0 | 8.0 | 0.00 | 0.00 | 0.00 | 12 | 915.5 |
| 20260510060848 | 82 | 20 | 3.0 | 8.0 | 0.00 | 0.00 | 0.00 | 12 | 915.4 |
| 20260510060743 | 82 | 26 | 3.0 | 8.0 | 0.00 | 0.00 | 0.00 | 12 | 915.4 |
| 20260510060635 | 82 | 5 | 3.0 | 7.0 | 0.00 | 0.00 | 0.00 | 12 | 915.5 |
| 20260510060531 | 82 | 35 | 3.0 | 7.0 | 0.00 | 0.00 | 0.00 | 12 | 915.5 |
| 20260510060426 | 82 | 27 | 3.0 | 7.0 | 0.00 | 0.00 | 0.00 | 12 | 915.4 |
| 20260510060322 | 82 | 28 | 3.0 | 7.0 | 0.00 | 0.00 | 0.00 | 12 | 915.4 |
| 20260510060215 | 82 | 13 | 3.0 | 7.0 | 0.00 | 0.00 | 0.00 | 12 | 915.5 |
| 20260510060109 | 82 | 15 | 3.0 | 7.0 | 0.00 | 0.00 | 0.00 | 12 | 915.4 |
| 20260510055748 | 82 | 32 | 2.0 | 8.0 | 0.00 | 0.00 | 0.00 | 12 | 915.4 |
| 20260510055642 | 82 | 11 | 2.0 | 8.0 | 0.00 | 0.00 | 0.00 | 12 | 915.5 |
| 20260510055539 | 82 | 19 | 3.0 | 8.0 | 0.00 | 0.00 | 0.00 | 12 | 915.5 |
| 20260510055431 | 82 | 34 | 3.0 | 8.0 | 0.00 | 0.00 | 0.00 | 12 | 915.4 |
| 20260510055324 | 82 | 29 | 3.0 | 8.0 | 0.00 | 0.00 | 0.00 | 12 | 915.5 |
| 20260510055221 | 82 | 22 | 3.0 | 8.0 | 0.00 | 0.00 | 0.00 | 12 | 915.4 |
| 20260510055118 | 82 | 35 | 3.0 | 8.0 | 0.00 | 0.00 | 0.00 | 12 | 915.5 |
| 20260510055015 | 82 | 346 | 3.0 | 8.0 | 0.00 | 0.00 | 0.00 | 12 | 915.5 |
| 20260510054908 | 82 | 22 | 3.0 | 8.0 | 0.00 | 0.00 | 0.00 | 12 | 915.4 |
| 20260510054803 | 82 | 24 | 3.0 | 8.0 | 0.00 | 0.00 | 0.00 | 12 | 915.5 |
| 20260510054657 | 82 | 32 | 3.0 | 8.0 | 0.00 | 0.00 | 0.00 | 11 | 915.5 |
| 20260510054553 | 82 | 33 | 3.0 | 8.0 | 0.00 | 0.00 | 0.00 | 11 | 915.5 |
| 20260510054450 | 82 | 25 | 3.0 | 8.0 | 0.00 | 0.00 | 0.00 | 12 | 915.6 |
| 20260510054344 | 82 | 17 | 3.0 | 8.0 | 0.00 | 0.00 | 0.00 | 11 | 915.5 |
| 20260510054236 | 82 | 26 | 3.0 | 8.0 | 0.00 | 0.00 | 0.00 | 11 | 915.5 |
| 20260510054133 | 82 | 5 | 3.0 | 8.0 | 0.00 | 0.00 | 0.00 | 11 | 915.5 |
| 20260510054028 | 82 | 10 | 3.0 | 8.0 | 0.00 | 0.00 | 0.00 | 11 | 915.5 |
| 20260510053922 | 82 | 39 | 3.0 | 6.0 | 0.00 | 0.00 | 0.00 | 11 | 915.5 |
| 20260510053817 | 82 | 10 | 3.0 | 6.0 | 0.00 | 0.00 | 0.00 | 11 | 915.5 |
| 20260510053715 | 82 | 16 | 3.0 | 6.0 | 0.00 | 0.00 | 0.00 | 11 | 915.5 |
| 20260510053613 | 82 | 27 | 3.0 | 6.0 | 0.00 | 0.00 | 0.00 | 11 | 915.4 |
| 20260510053247 | 82 | 34 | 3.0 | 6.0 | 0.00 | 0.00 | 0.00 | 11 | 915.4 |
| 20260510053142 | 82 | 32 | 3.0 | 6.0 | 0.00 | 0.00 | 0.00 | 11 | 915.4 |
| 20260510053039 | 82 | 13 | 3.0 | 6.0 | 0.00 | 0.00 | 0.00 | 11 | 915.4 |
| 20260510052935 | 82 | 42 | 3.0 | 6.0 | 0.00 | 0.00 | 0.00 | 11 | 915.4 |
| 20260510052614 | 82 | 45 | 2.0 | 6.0 | 0.00 | 0.00 | 0.00 | 11 | 915.4 |
| 20260510052510 | 82 | 58 | 2.0 | 6.0 | 0.00 | 0.00 | 0.00 | 11 | 915.4 |
| 20260510052403 | 82 | 39 | 2.0 | 6.0 | 0.00 | 0.00 | 0.00 | 11 | 915.4 |
| 20260510052256 | 82 | 38 | 2.0 | 6.0 | 0.00 | 0.00 | 0.00 | 11 | 915.4 |
| 20260510052150 | 82 | 5 | 2.0 | 6.0 | 0.00 | 0.00 | 0.00 | 11 | 915.5 |
| 20260510051826 | 82 | 17 | 2.0 | 6.0 | 0.00 | 0.00 | 0.00 | 11 | 915.5 |
| 20260510051459 | 82 | 29 | 3.0 | 6.0 | 0.00 | 0.00 | 0.00 | 11 | 915.4 |
| 20260510051130 | 82 | 46 | 3.0 | 6.0 | 0.00 | 0.00 | 0.00 | 11 | 915.4 |
| 20260510050804 | 82 | 37 | 3.0 | 6.0 | 0.00 | 0.00 | 0.00 | 11 | 915.4 |
| 20260510050659 | 82 | 39 | 3.0 | 6.0 | 0.00 | 0.00 | 0.00 | 11 | 915.4 |
| 20260510050553 | 82 | 36 | 3.0 | 6.0 | 0.00 | 0.00 | 0.00 | 11 | 915.4 |
| 20260510050012 | 82 | 26 | 3.0 | 6.0 | 0.00 | 0.00 | 0.00 | 11 | 915.3 |
| 20260510045905 | 83 | 17 | 3.0 | 5.0 | 0.00 | 0.00 | 0.00 | 11 | 915.3 |
| 20260510045758 | 83 | 9 | 2.0 | 5.0 | 0.00 | 0.00 | 0.00 | 11 | 915.4 |
| 20260510045656 | 83 | 31 | 2.0 | 5.0 | 0.00 | 0.00 | 0.00 | 11 | 915.3 |
| 20260510045549 | 83 | 40 | 3.0 | 5.0 | 0.00 | 0.00 | 0.00 | 11 | 915.3 |
| 20260510045445 | 83 | 34 | 3.0 | 5.0 | 0.00 | 0.00 | 0.00 | 11 | 915.3 |
| 20260510045340 | 83 | 27 | 3.0 | 5.0 | 0.00 | 0.00 | 0.00 | 11 | 915.4 |
| 20260510045234 | 83 | 11 | 3.0 | 5.0 | 0.00 | 0.00 | 0.00 | 11 | 915.3 |
| 20260510045131 | 83 | 5 | 2.0 | 5.0 | 0.00 | 0.00 | 0.00 | 11 | 915.3 |
| 20260510045029 | 83 | 19 | 2.0 | 5.0 | 0.00 | 0.00 | 0.00 | 11 | 915.4 |
| 20260510044923 | 83 | 22 | 2.0 | 4.0 | 0.00 | 0.00 | 0.00 | 11 | 915.4 |
| 20260510044818 | 83 | 29 | 2.0 | 4.0 | 0.00 | 0.00 | 0.00 | 11 | 915.3 |
| 20260510044715 | 83 | 12 | 2.0 | 4.0 | 0.00 | 0.00 | 0.00 | 11 | 915.3 |
| 20260510044607 | 83 | 37 | 2.0 | 4.0 | 0.00 | 0.00 | 0.00 | 11 | 915.2 |
| 20260510044504 | 83 | 9 | 2.0 | 4.0 | 0.00 | 0.00 | 0.00 | 11 | 915.3 |
| 20260510044359 | 83 | 0 | 1.0 | 4.0 | 0.00 | 0.00 | 0.00 | 11 | 915.3 |
| 20260510044255 | 83 | 35 | 1.0 | 4.0 | 0.00 | 0.00 | 0.00 | 11 | 915.3 |
| 20260510044151 | 84 | 17 | 1.0 | 4.0 | 0.00 | 0.00 | 0.00 | 11 | 915.3 |
| 20260510044049 | 84 | 28 | 1.0 | 4.0 | 0.00 | 0.00 | 0.00 | 11 | 915.3 |
| 20260510043945 | 84 | 40 | 1.0 | 4.0 | 0.00 | 0.00 | 0.00 | 11 | 915.3 |
| 20260510043840 | 84 | 26 | 1.0 | 4.0 | 0.00 | 0.00 | 0.00 | 11 | 915.3 |
| 20260510043733 | 84 | 36 | 1.0 | 4.0 | 0.00 | 0.00 | 0.00 | 11 | 915.3 |
| 20260510043628 | 84 | 43 | 2.0 | 4.0 | 0.00 | 0.00 | 0.00 | 11 | 915.2 |
| 20260510043521 | 84 | 27 | 2.0 | 4.0 | 0.00 | 0.00 | 0.00 | 11 | 915.3 |
| 20260510043414 | 84 | 31 | 2.0 | 4.0 | 0.00 | 0.00 | 0.00 | 11 | 915.3 |
| 20260510043312 | 84 | 27 | 2.0 | 4.0 | 0.00 | 0.00 | 0.00 | 11 | 915.2 |
| 20260510043207 | 84 | 26 | 2.0 | 4.0 | 0.00 | 0.00 | 0.00 | 11 | 915.2 |
| 20260510042623 | 84 | 20 | 1.0 | 4.0 | 0.00 | 0.00 | 0.00 | 11 | 915.2 |
| 20260510042515 | 84 | 30 | 1.0 | 3.0 | 0.00 | 0.00 | 0.00 | 11 | 915.2 |
| 20260510042408 | 84 | 38 | 1.0 | 3.0 | 0.00 | 0.00 | 0.00 | 11 | 915.2 |
| 20260510042306 | 84 | 37 | 1.0 | 3.0 | 0.00 | 0.00 | 0.00 | 10 | 915.2 |
| 20260510042157 | 84 | 47 | 1.0 | 3.0 | 0.00 | 0.00 | 0.00 | 11 | 915.1 |
| 20260510042051 | 84 | 27 | 1.0 | 3.0 | 0.00 | 0.00 | 0.00 | 10 | 915.2 |
| 20260510041945 | 84 | 63 | 1.0 | 3.0 | 0.00 | 0.00 | 0.00 | 10 | 915.1 |
| 20260510041839 | 84 | 53 | 1.0 | 3.0 | 0.00 | 0.00 | 0.00 | 11 | 915.1 |
| 20260510041734 | 84 | 14 | 2.0 | 3.0 | 0.00 | 0.00 | 0.00 | 11 | 915.1 |
| 20260510041629 | 84 | 13 | 2.0 | 3.0 | 0.00 | 0.00 | 0.00 | 11 | 915.1 |
| 20260510041524 | 84 | 40 | 2.0 | 3.0 | 0.00 | 0.00 | 0.00 | 11 | 915.1 |
| 20260510041416 | 84 | 29 | 2.0 | 3.0 | 0.00 | 0.00 | 0.00 | 11 | 915.1 |
| 20260510041308 | 84 | 31 | 2.0 | 3.0 | 0.00 | 0.00 | 0.00 | 11 | 915.1 |
| 20260510041201 | 84 | 40 | 1.0 | 3.0 | 0.00 | 0.00 | 0.00 | 11 | 915.1 |
| 20260510041058 | 84 | 39 | 1.0 | 3.0 | 0.00 | 0.00 | 0.00 | 11 | 915.1 |
| 20260510040731 | 85 | 38 | 1.0 | 3.0 | 0.00 | 0.00 | 0.00 | 11 | 915.0 |
| 20260510040625 | 85 | 36 | 1.0 | 2.0 | 0.00 | 0.00 | 0.00 | 11 | 915.1 |
| 20260510040301 | 85 | 18 | 1.0 | 2.0 | 0.00 | 0.00 | 0.00 | 11 | 915.0 |
| 20260510040155 | 85 | 19 | 0.0 | 2.0 | 0.00 | 0.00 | 0.00 | 11 | 915.0 |
| 20260510035833 | 85 | 32 | 0.0 | 2.0 | 0.00 | 0.00 | 0.00 | 11 | 914.9 |
| 20260510035726 | 85 | 32 | 0.0 | 2.0 | 0.00 | 0.00 | 0.00 | 11 | 914.9 |
| 20260510035619 | 85 | 32 | 0.0 | 2.0 | 0.00 | 0.00 | 0.00 | 11 | 914.8 |
| 20260510034810 | 86 | 32 | 0.0 | 2.0 | 0.00 | 0.00 | 0.00 | 10 | 914.7 |
| 20260510034704 | 86 | 32 | 0.0 | 2.0 | 0.00 | 0.00 | 0.00 | 10 | 914.7 |
| 20260510034603 | 86 | 32 | 0.0 | 2.0 | 0.00 | 0.00 | 0.00 | 10 | 914.7 |
| 20260510034458 | 86 | 29 | 0.0 | 2.0 | 0.00 | 0.00 | 0.00 | 10 | 914.7 |
| 20260510034351 | 86 | 355 | 0.0 | 1.0 | 0.00 | 0.00 | 0.00 | 10 | 914.7 |
| 20260510033809 | 86 | 250 | 0.0 | 0.0 | 0.00 | 0.00 | 0.00 | 10 | 914.6 |
| 20260510033707 | 87 | 250 | 0.0 | 0.0 | 0.00 | 0.00 | 0.00 | 10 | 914.5 |
| 20260510033338 | 87 | 250 | 0.0 | 0.0 | 0.00 | 0.00 | 0.00 | 10 | 914.6 |
| 20260510033230 | 87 | 250 | 0.0 | 0.0 | 0.00 | 0.00 | 0.00 | 10 | 914.5 |
| 20260510033124 | 87 | 250 | 0.0 | 0.0 | 0.00 | 0.00 | 0.00 | 10 | 914.5 |
| 20260510032801 | 87 | 250 | 0.0 | 0.0 | 0.00 | 0.00 | 0.00 | 10 | 914.4 |
| 20260510032437 | 87 | 250 | 0.0 | 0.0 | 0.00 | 0.00 | 0.00 | 9 | 914.4 |
| 20260510032331 | 87 | 250 | 0.0 | 0.0 | 0.00 | 0.00 | 0.00 | 10 | 914.4 |
| 20260510032228 | 88 | 250 | 0.0 | 0.0 | 0.00 | 0.00 | 0.00 | 10 | 914.4 |
| 20260510031900 | 88 | 241 | 0.0 | 0.0 | 0.00 | 0.00 | 0.00 | 10 | 914.3 |
| 20260510031754 | 88 | 241 | 0.0 | 0.0 | 0.00 | 0.00 | 0.00 | 10 | 914.3 |
| 20260510031647 | 88 | 241 | 0.0 | 0.0 | 0.00 | 0.00 | 0.00 | 10 | 914.3 |
| 20260510031103 | 89 | 241 | 0.0 | 0.0 | 0.00 | 0.00 | 0.00 | 9 | 914.2 |
| 20260510030956 | 89 | 241 | 0.0 | 0.0 | 0.00 | 0.00 | 0.00 | 10 | 914.2 |
| 20260510030853 | 89 | 241 | 1.0 | 0.0 | 0.00 | 0.00 | 0.00 | 10 | 914.2 |
| 20260510030747 | 89 | 241 | 1.0 | 0.0 | 0.00 | 0.00 | 0.00 | 9 | 914.2 |
| 20260510030640 | 89 | 241 | 1.0 | 4.0 | 0.00 | 0.00 | 0.00 | 10 | 914.2 |
| 20260510030536 | 89 | 241 | 1.0 | 4.0 | 0.00 | 0.00 | 0.00 | 9 | 914.2 |
| 20260510030432 | 89 | 241 | 1.0 | 4.0 | 0.00 | 0.00 | 0.00 | 10 | 914.1 |
| 20260510030328 | 89 | 241 | 1.0 | 4.0 | 0.00 | 0.00 | 0.00 | 9 | 914.1 |
| 20260510030226 | 89 | 234 | 1.0 | 4.0 | 0.00 | 0.00 | 0.00 | 9 | 914.1 |
| 20260510030118 | 89 | 221 | 0.0 | 4.0 | 0.00 | 0.00 | 0.00 | 9 | 914.1 |
| 20260510030012 | 89 | 220 | 0.0 | 4.0 | 0.00 | 0.00 | 0.00 | 10 | 914.1 |
| 20260510025909 | 90 | 227 | 0.0 | 3.0 | 0.00 | 0.00 | 0.00 | 10 | 914.1 |
| 20260510025801 | 90 | 236 | 0.0 | 2.0 | 0.00 | 0.00 | 0.00 | 10 | 914.1 |
| 20260510025654 | 90 | 237 | 0.0 | 2.0 | 0.00 | 0.00 | 0.00 | 10 | 914.1 |
| 20260510025326 | 90 | 237 | 0.0 | 2.0 | 0.00 | 0.00 | 0.00 | 9 | 914.0 |
| 20260510025219 | 90 | 238 | 0.0 | 1.0 | 0.00 | 0.00 | 0.00 | 9 | 914.0 |
| 20260510025114 | 90 | 238 | 0.0 | 1.0 | 0.00 | 0.00 | 0.00 | 9 | 914.0 |
| 20260510024753 | 91 | 240 | 0.0 | 3.0 | 0.00 | 0.00 | 0.00 | 10 | 913.9 |
| 20260510024651 | 91 | 250 | 0.0 | 3.0 | 0.00 | 0.00 | 0.00 | 10 | 913.9 |
| 20260510024543 | 91 | 250 | 0.0 | 3.0 | 0.00 | 0.00 | 0.00 | 10 | 913.9 |
| 20260510024218 | 91 | 250 | 0.0 | 3.0 | 0.00 | 0.00 | 0.00 | 10 | 913.9 |
| 20260510024115 | 91 | 250 | 0.0 | 3.0 | 0.00 | 0.00 | 0.00 | 10 | 913.9 |
| 20260510024008 | 92 | 246 | 0.0 | 3.0 | 0.00 | 0.00 | 0.00 | 10 | 913.9 |
| 20260510023905 | 92 | 248 | 0.0 | 3.0 | 0.00 | 0.00 | 0.00 | 10 | 913.9 |
| 20260510023802 | 92 | 249 | 1.0 | 3.0 | 0.00 | 0.00 | 0.00 | 10 | 913.9 |
| 20260510023700 | 92 | 242 | 1.0 | 5.0 | 0.00 | 0.00 | 0.00 | 10 | 913.9 |
| 20260510023552 | 92 | 242 | 1.0 | 5.0 | 0.00 | 0.00 | 0.00 | 10 | 913.9 |
| 20260510023449 | 92 | 246 | 1.0 | 5.0 | 0.00 | 0.00 | 0.00 | 9 | 913.9 |
| 20260510023344 | 92 | 246 | 1.0 | 5.0 | 0.00 | 0.00 | 0.00 | 9 | 913.9 |
| 20260510023240 | 92 | 234 | 1.0 | 5.0 | 0.00 | 0.00 | 0.00 | 8 | 913.9 |
| 20260510023138 | 92 | 244 | 1.0 | 5.0 | 0.00 | 0.00 | 0.00 | 8 | 913.9 |
| 20260510022813 | 93 | 259 | 1.0 | 5.0 | 0.00 | 0.00 | 0.00 | 8 | 913.9 |
| 20260510022707 | 93 | 239 | 2.0 | 6.0 | 0.00 | 0.00 | 0.00 | 8 | 913.8 |
| 20260510022343 | 93 | 256 | 2.0 | 6.0 | 0.00 | 0.00 | 0.00 | 8 | 913.8 |
| 20260510022237 | 93 | 248 | 2.0 | 6.0 | 0.00 | 0.00 | 0.00 | 8 | 913.8 |
| 20260510021432 | 94 | 247 | 1.0 | 6.0 | 0.00 | 0.00 | 0.00 | 8 | 913.8 |
| 20260510021324 | 94 | 252 | 1.0 | 6.0 | 0.00 | 0.00 | 0.00 | 8 | 913.8 |
| 20260510021217 | 94 | 249 | 1.0 | 6.0 | 0.00 | 0.00 | 0.00 | 8 | 913.8 |
| 20260510021114 | 94 | 231 | 1.0 | 6.0 | 0.00 | 0.00 | 0.00 | 8 | 913.7 |
| 20260510021010 | 94 | 247 | 1.0 | 6.0 | 0.00 | 0.00 | 0.00 | 8 | 913.8 |
| 20260510020902 | 94 | 228 | 1.0 | 6.0 | 0.00 | 0.00 | 0.00 | 8 | 913.7 |
| 20260510020755 | 95 | 246 | 1.0 | 5.0 | 0.00 | 0.00 | 0.00 | 8 | 913.7 |
| 20260510020648 | 95 | 230 | 1.0 | 5.0 | 0.00 | 0.00 | 0.00 | 8 | 913.7 |
| 20260510020543 | 95 | 246 | 1.0 | 5.0 | 0.00 | 0.00 | 0.00 | 8 | 913.7 |
| 20260510020437 | 95 | 252 | 1.0 | 5.0 | 0.00 | 0.00 | 0.00 | 8 | 913.7 |
| 20260510020335 | 95 | 254 | 1.0 | 6.0 | 0.00 | 0.00 | 0.00 | 8 | 913.7 |
| 20260510020227 | 95 | 237 | 1.0 | 6.0 | 0.00 | 0.00 | 0.00 | 8 | 913.7 |
| 20260510020123 | 95 | 236 | 1.0 | 6.0 | 0.00 | 0.00 | 0.00 | 8 | 913.7 |
| 20260510020021 | 95 | 260 | 1.0 | 6.0 | 0.00 | 0.00 | 0.00 | 8 | 913.7 |
| 20260510015916 | 95 | 285 | 1.0 | 6.0 | 0.00 | 0.00 | 0.00 | 8 | 913.7 |
| 20260510015811 | 95 | 243 | 1.0 | 6.0 | 0.00 | 0.00 | 0.00 | 8 | 913.7 |
| 20260510015706 | 96 | 263 | 2.0 | 6.0 | 0.00 | 0.00 | 0.00 | 7 | 913.6 |
| 20260510015600 | 96 | 276 | 2.0 | 6.0 | 0.00 | 0.00 | 0.00 | 8 | 913.6 |
| 20260510015458 | 96 | 278 | 2.0 | 6.0 | 0.00 | 0.00 | 0.00 | 8 | 913.6 |
| 20260510015355 | 96 | 245 | 2.0 | 6.0 | 0.00 | 0.00 | 0.00 | 8 | 913.6 |
| 20260510015248 | 96 | 222 | 2.0 | 6.0 | 0.00 | 0.00 | 0.00 | 8 | 913.6 |
| 20260510015145 | 96 | 285 | 2.0 | 6.0 | 0.00 | 0.00 | 0.00 | 8 | 913.6 |
| 20260510015041 | 96 | 251 | 2.0 | 6.0 | 0.00 | 0.00 | 0.00 | 8 | 913.6 |
| 20260510014934 | 96 | 265 | 2.0 | 6.0 | 0.00 | 0.00 | 0.00 | 7 | 913.6 |
| 20260510014831 | 96 | 325 | 2.0 | 6.0 | 0.00 | 0.00 | 0.00 | 7 | 913.6 |
| 20260510014247 | 97 | 269 | 1.0 | 4.0 | 0.00 | 0.00 | 0.00 | 7 | 913.6 |
| 20260510013920 | 97 | 296 | 1.0 | 4.0 | 0.00 | 0.00 | 0.00 | 8 | 913.6 |
| 20260510013818 | 97 | 296 | 1.0 | 4.0 | 0.00 | 0.00 | 0.00 | 7 | 913.6 |
| 20260510013458 | 97 | 300 | 1.0 | 4.0 | 0.00 | 0.00 | 0.00 | 7 | 913.6 |
| 20260510013353 | 97 | 304 | 1.0 | 4.0 | 0.00 | 0.00 | 0.00 | 7 | 913.6 |
| 20260510013249 | 97 | 323 | 1.0 | 4.0 | 0.00 | 0.00 | 0.00 | 7 | 913.6 |
| 20260510013146 | 97 | 27 | 1.0 | 4.0 | 0.00 | 0.00 | 0.00 | 7 | 913.6 |
| 20260510013041 | 97 | 334 | 1.0 | 4.0 | 0.00 | 0.00 | 0.00 | 7 | 913.6 |
| 20260510012934 | 97 | 291 | 1.0 | 4.0 | 0.00 | 0.00 | 0.00 | 8 | 913.6 |
| 20260510012828 | 97 | 277 | 1.0 | 4.0 | 0.00 | 0.00 | 0.00 | 7 | 913.6 |
| 20260510012722 | 97 | 330 | 1.0 | 4.0 | 0.00 | 0.00 | 0.00 | 8 | 913.6 |
| 20260510012355 | 97 | 259 | 1.0 | 4.0 | 0.00 | 0.00 | 0.00 | 7 | 913.7 |
| 20260510012251 | 97 | 292 | 1.0 | 4.0 | 0.00 | 0.00 | 0.00 | 7 | 913.7 |
| 20260510012145 | 97 | 271 | 1.0 | 4.0 | 0.00 | 0.00 | 0.00 | 7 | 913.7 |
| 20260510012043 | 97 | 287 | 1.0 | 9.0 | 0.00 | 0.00 | 0.00 | 7 | 913.6 |
| 20260510011936 | 97 | 290 | 1.0 | 9.0 | 0.00 | 0.00 | 0.00 | 8 | 913.7 |
| 20260510011828 | 97 | 291 | 2.0 | 9.0 | 0.00 | 0.00 | 0.00 | 8 | 913.6 |
| 20260510011726 | 97 | 276 | 2.0 | 9.0 | 0.00 | 0.00 | 0.00 | 8 | 913.7 |
| 20260510011619 | 97 | 265 | 2.0 | 9.0 | 0.00 | 0.00 | 0.00 | 8 | 913.7 |
| 20260510011516 | 97 | 294 | 2.0 | 9.0 | 0.00 | 0.00 | 0.00 | 8 | 913.7 |
| 20260510010927 | 97 | 210 | 4.0 | 11.0 | 0.00 | 0.00 | 0.00 | 7 | 913.7 |
| 20260510010819 | 97 | 259 | 3.0 | 11.0 | 0.00 | 0.00 | 0.00 | 8 | 913.7 |
| 20260510010711 | 97 | 261 | 3.0 | 11.0 | 0.00 | 0.00 | 0.00 | 7 | 913.6 |
| 20260510010607 | 97 | 254 | 3.0 | 11.0 | 0.00 | 0.00 | 0.00 | 7 | 913.7 |
| 20260510010242 | 97 | 244 | 3.0 | 11.0 | 0.00 | 0.00 | 0.00 | 7 | 913.7 |
| 20260510010140 | 97 | 229 | 3.0 | 11.0 | 0.00 | 0.00 | 0.00 | 7 | 913.7 |
| 20260510010037 | 97 | 228 | 3.0 | 11.0 | 0.00 | 0.00 | 0.00 | 7 | 913.7 |
| 20260510005709 | 97 | 290 | 3.0 | 11.0 | 0.00 | 0.00 | 0.00 | 8 | 913.6 |
| 20260510005606 | 98 | 292 | 3.0 | 11.0 | 0.00 | 0.00 | 0.00 | 7 | 913.6 |
| 20260510005459 | 98 | 290 | 3.0 | 11.0 | 0.00 | 0.00 | 0.00 | 7 | 913.7 |
| 20260510005356 | 98 | 227 | 3.0 | 11.0 | 0.00 | 0.00 | 0.00 | 7 | 913.8 |
| 20260510005251 | 98 | 263 | 3.0 | 11.0 | 0.00 | 0.00 | 0.00 | 7 | 913.7 |
| 20260510004927 | 98 | 285 | 2.0 | 8.0 | 0.00 | 0.00 | 0.00 | 7 | 913.7 |
| 20260510004554 | 98 | 264 | 2.0 | 8.0 | 0.00 | 0.00 | 0.00 | 7 | 913.7 |
| 20260510004450 | 98 | 292 | 3.0 | 8.0 | 0.00 | 0.00 | 0.00 | 7 | 913.6 |
| 20260510004344 | 98 | 280 | 3.0 | 8.0 | 0.00 | 0.00 | 0.00 | 7 | 913.7 |
| 20260510004240 | 98 | 304 | 3.0 | 12.0 | 0.00 | 0.00 | 0.00 | 8 | 913.7 |
| 20260510003917 | 98 | 200 | 3.0 | 12.0 | 0.00 | 0.00 | 0.00 | 7 | 913.7 |
| 20260510003550 | 98 | 242 | 2.0 | 12.0 | 0.00 | 0.00 | 0.00 | 7 | 913.7 |
| 20260510003446 | 98 | 219 | 2.0 | 12.0 | 0.00 | 0.00 | 0.00 | 7 | 913.6 |
| 20260510003343 | 98 | 258 | 2.0 | 12.0 | 0.00 | 0.00 | 0.00 | 7 | 913.6 |
| 20260510003236 | 98 | 260 | 3.0 | 12.0 | 0.00 | 0.00 | 0.00 | 7 | 913.7 |
| 20260510003133 | 98 | 355 | 3.0 | 12.0 | 0.00 | 0.00 | 0.00 | 7 | 913.6 |
| 20260510003030 | 98 | 264 | 3.0 | 12.0 | 0.00 | 0.00 | 0.00 | 7 | 913.7 |
| 20260510002926 | 98 | 246 | 3.0 | 12.0 | 0.00 | 0.00 | 0.00 | 7 | 913.7 |
| 20260510002820 | 98 | 274 | 4.0 | 12.0 | 0.00 | 0.00 | 0.00 | 7 | 913.7 |
| 20260510002715 | 98 | 258 | 4.0 | 12.0 | 0.00 | 0.00 | 0.00 | 8 | 913.7 |
| 20260510002610 | 98 | 218 | 4.0 | 12.0 | 0.00 | 0.00 | 0.00 | 8 | 913.7 |
| 20260510002502 | 98 | 304 | 5.0 | 12.0 | 0.00 | 0.00 | 0.00 | 7 | 913.7 |
| 20260510002359 | 98 | 208 | 4.0 | 12.0 | 0.00 | 0.00 | 0.00 | 7 | 913.7 |
| 20260510002250 | 98 | 241 | 4.0 | 10.0 | 0.00 | 0.00 | 0.00 | 7 | 913.7 |
| 20260510002148 | 98 | 273 | 4.0 | 10.0 | 0.00 | 0.00 | 0.00 | 7 | 913.7 |
| 20260510001559 | 98 | 215 | 4.0 | 10.0 | 0.00 | 0.00 | 0.00 | 7 | 913.7 |
| 20260510001017 | 98 | 207 | 4.0 | 13.0 | 0.00 | 0.00 | 0.00 | 7 | 913.8 |
| 20260510000911 | 99 | 229 | 4.0 | 13.0 | 0.00 | 0.00 | 0.00 | 7 | 913.8 |
| 20260510000808 | 99 | 234 | 4.0 | 13.0 | 0.00 | 0.00 | 0.00 | 7 | 913.8 |
| 20260510000703 | 99 | 227 | 4.0 | 13.0 | 0.00 | 0.00 | 0.00 | 7 | 913.8 |
| 20260510000601 | 99 | 205 | 4.0 | 13.0 | 0.00 | 0.00 | 0.00 | 8 | 913.8 |
| 20260510000456 | 99 | 246 | 5.0 | 13.0 | 0.00 | 0.00 | 0.00 | 8 | 913.8 |
| 20260510000356 | 99 | 140 | 4.0 | 13.0 | 0.00 | 0.00 | 0.00 | 8 | 913.9 |
| 20260510000249 | 99 | 227 | 5.0 | 13.0 | 0.00 | 0.00 | 0.00 | 7 | 913.8 |
| 20260510000141 | 99 | 232 | 5.0 | 13.0 | 0.00 | 0.00 | 0.00 | 7 | 913.9 |
| 20260510000038 | 99 | 229 | 4.0 | 13.0 | 0.00 | 0.00 | 0.00 | 7 | 913.9 |
| 20260509235932 | 99 | 233 | 4.0 | 13.0 | 0.00 | 0.00 | 0.00 | 7 | 913.9 |
| 20260509235830 | 99 | 222 | 3.0 | 13.0 | 0.00 | 0.00 | 0.00 | 7 | 913.9 |
| 20260509235725 | 99 | 254 | 3.0 | 13.0 | 0.00 | 0.00 | 0.00 | 8 | 913.9 |
| 20260509235619 | 99 | 225 | 3.0 | 13.0 | 0.00 | 0.00 | 0.00 | 8 | 913.9 |
| 20260509235517 | 99 | 219 | 3.0 | 13.0 | 0.00 | 0.00 | 0.00 | 7 | 913.9 |
| 20260509235410 | 99 | 232 | 2.0 | 7.0 | 0.00 | 0.00 | 0.00 | 7 | 913.9 |
| 20260509235306 | 99 | 259 | 2.0 | 7.0 | 0.00 | 0.00 | 0.00 | 7 | 914.0 |
| 20260509234935 | 99 | 259 | 1.0 | 11.0 | 0.00 | 0.00 | 0.00 | 8 | 914.0 |
| 20260509234832 | 99 | 272 | 1.0 | 11.0 | 0.00 | 0.00 | 0.00 | 8 | 914.0 |
| 20260509234727 | 99 | 232 | 2.0 | 11.0 | 0.00 | 0.00 | 0.00 | 8 | 914.0 |
| 20260509234621 | 99 | 210 | 2.0 | 11.0 | 0.00 | 0.00 | 0.00 | 7 | 914.0 |
| 20260509234514 | 99 | 150 | 2.0 | 11.0 | 0.00 | 0.00 | 0.00 | 7 | 914.0 |
| 20260509234409 | 99 | 194 | 3.0 | 11.0 | 0.00 | 0.00 | 0.00 | 7 | 914.0 |
| 20260509234303 | 99 | 151 | 3.0 | 11.0 | 0.00 | 0.00 | 0.00 | 8 | 914.0 |
| 20260509233940 | 99 | 219 | 4.0 | 11.0 | 0.00 | 0.00 | 0.00 | 7 | 914.1 |
| 20260509233834 | 99 | 298 | 4.0 | 11.0 | 0.00 | 0.00 | 0.00 | 7 | 914.1 |
| 20260509233731 | 99 | 238 | 4.0 | 11.0 | 0.00 | 0.00 | 0.00 | 7 | 914.1 |
| 20260509233623 | 100 | 213 | 3.0 | 11.0 | 0.00 | 0.00 | 0.00 | 7 | 914.0 |
| 20260509233520 | 100 | 173 | 3.0 | 11.0 | 0.00 | 0.00 | 0.00 | 7 | 914.1 |
| 20260509233413 | 100 | 215 | 2.0 | 11.0 | 0.00 | 0.00 | 0.00 | 7 | 914.1 |
| 20260509233049 | 100 | 252 | 1.0 | 11.0 | 0.00 | 0.00 | 0.00 | 7 | 914.1 |
| 20260509232943 | 100 | 225 | 0.0 | 6.0 | 0.00 | 0.00 | 0.00 | 7 | 914.1 |
| 20260509232840 | 100 | 277 | 0.0 | 3.0 | 0.00 | 0.00 | 0.00 | 8 | 914.1 |
| 20260509232737 | 100 | 9 | 0.0 | 3.0 | 0.00 | 0.00 | 0.00 | 7 | 914.1 |
| 20260509232632 | 100 | 9 | 0.0 | 3.0 | 0.00 | 0.00 | 0.00 | 7 | 914.1 |
| 20260509232528 | 100 | 9 | 0.0 | 3.0 | 0.00 | 0.00 | 0.00 | 7 | 914.1 |
| 20260509232422 | 100 | 24 | 1.0 | 3.0 | 0.00 | 0.00 | 0.00 | 7 | 914.1 |
| 20260509232316 | 100 | 24 | 1.0 | 9.0 | 0.00 | 0.00 | 0.00 | 7 | 914.1 |
| 20260509232209 | 100 | 38 | 1.0 | 9.0 | 0.00 | 0.00 | 0.00 | 7 | 914.1 |
| 20260509232106 | 100 | 325 | 1.0 | 9.0 | 0.00 | 0.00 | 0.00 | 7 | 914.1 |
| 20260509232002 | 100 | 332 | 1.0 | 9.0 | 0.00 | 0.00 | 0.00 | 7 | 914.1 |
| 20260509231856 | 100 | 303 | 1.0 | 9.0 | 0.00 | 0.00 | 0.00 | 7 | 914.1 |
| 20260509231751 | 100 | 335 | 1.0 | 9.0 | 0.00 | 0.00 | 0.00 | 7 | 914.1 |
| 20260509231648 | 100 | 45 | 1.0 | 9.0 | 0.00 | 0.00 | 0.00 | 7 | 914.1 |
| 20260509231546 | 100 | 188 | 1.0 | 9.0 | 0.00 | 0.00 | 0.00 | 7 | 914.2 |
| 20260509231442 | 100 | 288 | 1.0 | 9.0 | 0.00 | 0.00 | 0.00 | 7 | 914.1 |
| 20260509231337 | 100 | 304 | 1.0 | 9.0 | 0.00 | 0.00 | 0.00 | 8 | 914.2 |
| 20260509231232 | 100 | 205 | 2.0 | 9.0 | 0.00 | 0.00 | 0.00 | 7 | 914.2 |
| 20260509230907 | 99 | 236 | 2.0 | 9.0 | 0.00 | 0.00 | 0.00 | 8 | 914.3 |
| 20260509230800 | 99 | 201 | 2.0 | 9.0 | 0.00 | 0.00 | 0.00 | 8 | 914.2 |
| 20260509230656 | 99 | 158 | 2.0 | 9.0 | 0.00 | 0.00 | 0.00 | 7 | 914.3 |
| 20260509230549 | 99 | 83 | 2.0 | 9.0 | 0.00 | 0.00 | 0.00 | 7 | 914.4 |
| 20260509230446 | 99 | 320 | 2.0 | 9.0 | 0.00 | 0.00 | 0.00 | 8 | 914.3 |
| 20260509230340 | 100 | 241 | 2.0 | 9.0 | 0.00 | 0.00 | 0.00 | 7 | 914.2 |
| 20260509230232 | 100 | 281 | 2.0 | 9.0 | 0.00 | 0.00 | 0.00 | 8 | 914.2 |
| 20260509230130 | 100 | 240 | 2.0 | 9.0 | 0.00 | 0.00 | 0.00 | 8 | 914.2 |
| 20260509230026 | 100 | 274 | 2.0 | 9.0 | 0.00 | 0.00 | 0.00 | 8 | 914.2 |
| 20260509225921 | 100 | 344 | 2.0 | 9.0 | 0.00 | 0.00 | 0.00 | 8 | 914.2 |
| 20260509225818 | 100 | 294 | 2.0 | 9.0 | 0.00 | 0.00 | 0.00 | 8 | 914.2 |
| 20260509225714 | 100 | 288 | 2.0 | 9.0 | 0.00 | 0.00 | 0.00 | 8 | 914.2 |
| 20260509225609 | 100 | 331 | 2.0 | 9.0 | 0.00 | 0.00 | 0.00 | 7 | 914.2 |
| 20260509225504 | 100 | 355 | 2.0 | 9.0 | 0.00 | 0.00 | 0.00 | 7 | 914.2 |
| 20260509225356 | 100 | 320 | 2.0 | 9.0 | 0.00 | 0.00 | 0.00 | 8 | 914.3 |
| 20260509225033 | 100 | 229 | 1.0 | 6.0 | 0.00 | 0.00 | 0.00 | 8 | 914.3 |
| 20260509224926 | 99 | 225 | 1.0 | 5.0 | 0.00 | 0.00 | 0.00 | 8 | 914.3 |
| 20260509224822 | 99 | 214 | 1.0 | 5.0 | 0.00 | 0.00 | 0.00 | 8 | 914.3 |
| 20260509224715 | 99 | 207 | 1.0 | 5.0 | 0.00 | 0.00 | 0.00 | 8 | 914.3 |
| 20260509224608 | 99 | 219 | 1.0 | 10.0 | 0.00 | 0.00 | 0.00 | 8 | 914.4 |
| 20260509224245 | 99 | 249 | 1.0 | 10.0 | 0.00 | 0.00 | 0.00 | 8 | 914.5 |
| 20260509224138 | 99 | 10 | 1.0 | 10.0 | 0.00 | 0.00 | 0.00 | 7 | 914.5 |
| 20260509224032 | 99 | 34 | 1.0 | 10.0 | 0.00 | 0.00 | 0.00 | 7 | 914.5 |
| 20260509223449 | 99 | 158 | 3.0 | 10.0 | 0.00 | 0.00 | 0.00 | 8 | 914.6 |
| 20260509223344 | 99 | 161 | 3.0 | 10.0 | 0.00 | 0.00 | 0.00 | 7 | 914.6 |
| 20260509223238 | 99 | 175 | 3.0 | 10.0 | 0.00 | 0.00 | 0.00 | 8 | 914.6 |
| 20260509223134 | 99 | 203 | 3.0 | 10.0 | 0.00 | 0.00 | 0.00 | 8 | 914.6 |
| 20260509223027 | 99 | 174 | 3.0 | 10.0 | 0.00 | 0.00 | 0.00 | 8 | 914.6 |
| 20260509222700 | 100 | 229 | 3.0 | 10.0 | 0.00 | 0.00 | 0.00 | 8 | 914.7 |
| 20260509222554 | 100 | 219 | 3.0 | 10.0 | 0.00 | 0.00 | 0.00 | 8 | 914.7 |
| 20260509222446 | 100 | 194 | 3.0 | 10.0 | 0.00 | 0.00 | 0.00 | 8 | 914.7 |
| 20260509222342 | 100 | 220 | 2.0 | 10.0 | 0.00 | 0.00 | 0.00 | 7 | 914.7 |
| 20260509222240 | 100 | 196 | 2.0 | 10.0 | 0.00 | 0.00 | 0.00 | 7 | 914.8 |
| 20260509222133 | 100 | 220 | 3.0 | 10.0 | 0.00 | 0.00 | 0.00 | 8 | 914.8 |
| 20260509222035 | 100 | 223 | 3.0 | 10.0 | 0.00 | 0.00 | 0.00 | 8 | 914.9 |
| 20260509221924 | 100 | 296 | 3.0 | 10.0 | 0.00 | 0.00 | 0.00 | 8 | 914.8 |
| 20260509221553 | 99 | 238 | 4.0 | 10.0 | 0.00 | 0.00 | 0.00 | 8 | 914.9 |
| 20260509221451 | 99 | 306 | 4.0 | 10.0 | 0.00 | 0.00 | 0.00 | 8 | 914.9 |
| 20260509221345 | 99 | 0 | 4.0 | 10.0 | 0.00 | 0.00 | 0.00 | 8 | 914.9 |
| 20260509221239 | 99 | 260 | 4.0 | 10.0 | 0.00 | 0.00 | 0.00 | 8 | 914.8 |
| 20260509221134 | 99 | 214 | 4.0 | 10.0 | 0.00 | 0.00 | 0.00 | 7 | 914.9 |
| 20260509221031 | 99 | 225 | 3.0 | 10.0 | 0.00 | 0.00 | 0.00 | 8 | 914.9 |
| 20260509220924 | 99 | 227 | 3.0 | 9.0 | 0.00 | 0.00 | 0.00 | 8 | 915.0 |
| 20260509220822 | 99 | 250 | 3.0 | 9.0 | 0.00 | 0.00 | 0.00 | 8 | 914.9 |
| 20260509220455 | 99 | 232 | 2.0 | 7.0 | 0.00 | 0.00 | 0.00 | 8 | 915.1 |
| 20260509220350 | 99 | 197 | 2.0 | 7.0 | 0.00 | 0.00 | 0.00 | 8 | 915.1 |
| 20260509220243 | 99 | 188 | 2.0 | 7.0 | 0.00 | 0.00 | 0.00 | 8 | 915.1 |
| 20260509220140 | 99 | 227 | 1.0 | 6.0 | 0.00 | 0.00 | 0.00 | 8 | 915.1 |
| 20260509220037 | 99 | 188 | 1.0 | 6.0 | 0.00 | 0.00 | 0.00 | 8 | 915.2 |
| 20260509215934 | 99 | 267 | 1.0 | 6.0 | 0.00 | 0.00 | 0.00 | 7 | 915.2 |
| 20260509215348 | 99 | 271 | 1.0 | 6.0 | 0.00 | 0.00 | 0.00 | 7 | 915.3 |
| 20260509215246 | 99 | 339 | 1.0 | 6.0 | 0.00 | 0.00 | 0.00 | 8 | 915.3 |
| 20260509215142 | 99 | 298 | 1.0 | 11.0 | 0.00 | 0.00 | 0.00 | 8 | 915.4 |
| 20260509215039 | 98 | 311 | 2.0 | 11.0 | 0.00 | 0.00 | 0.00 | 7 | 915.4 |
| 20260509214932 | 98 | 248 | 2.0 | 11.0 | 0.00 | 0.00 | 0.00 | 8 | 915.4 |
| 20260509214829 | 98 | 279 | 3.0 | 11.0 | 0.00 | 0.00 | 0.00 | 8 | 915.4 |
| 20260509214723 | 98 | 228 | 3.0 | 11.0 | 0.00 | 0.00 | 0.00 | 8 | 915.5 |
| 20260509214621 | 98 | 186 | 3.0 | 11.0 | 0.00 | 0.00 | 0.00 | 8 | 915.5 |
| 20260509214515 | 98 | 212 | 3.0 | 11.0 | 0.00 | 0.00 | 0.00 | 8 | 915.4 |
| 20260509214147 | 98 | 307 | 4.0 | 11.0 | 0.00 | 0.00 | 0.00 | 8 | 915.6 |
| 20260509213820 | 98 | 221 | 3.0 | 11.0 | 0.00 | 0.00 | 0.00 | 9 | 915.6 |
| 20260509213455 | 98 | 182 | 2.0 | 11.0 | 0.00 | 0.00 | 0.00 | 8 | 915.6 |
| 20260509212911 | 98 | 200 | 1.0 | 6.0 | 0.00 | 0.00 | 0.00 | 9 | 915.7 |
| 20260509212806 | 98 | 271 | 1.0 | 6.0 | 0.00 | 0.00 | 0.00 | 8 | 915.7 |
| 20260509212440 | 98 | 225 | 2.0 | 8.0 | 0.00 | 0.00 | 0.00 | 8 | 915.8 |
| 20260509212333 | 98 | 175 | 3.0 | 8.0 | 0.00 | 0.00 | 0.00 | 8 | 915.9 |
| 20260509212226 | 98 | 155 | 3.0 | 8.0 | 0.00 | 0.00 | 0.00 | 8 | 915.9 |
| 20260509211901 | 98 | 203 | 4.0 | 8.0 | 0.00 | 0.00 | 0.00 | 8 | 915.9 |
| 20260509211758 | 98 | 205 | 4.0 | 8.0 | 0.00 | 0.00 | 0.00 | 8 | 915.9 |
| 20260509211651 | 98 | 205 | 4.0 | 8.0 | 0.00 | 0.00 | 0.00 | 8 | 915.9 |
| 20260509211545 | 98 | 217 | 4.0 | 8.0 | 0.00 | 0.00 | 0.00 | 8 | 916.0 |
| 20260509211442 | 98 | 228 | 4.0 | 8.0 | 0.00 | 0.00 | 0.00 | 8 | 915.9 |
| 20260509211335 | 98 | 229 | 4.0 | 8.0 | 0.00 | 0.00 | 0.00 | 8 | 915.9 |
| 20260509211232 | 98 | 231 | 3.0 | 8.0 | 0.00 | 0.00 | 0.00 | 8 | 916.0 |
| 20260509211130 | 98 | 229 | 3.0 | 8.0 | 0.00 | 0.00 | 0.00 | 8 | 916.0 |
| 20260509211028 | 98 | 218 | 2.0 | 8.0 | 0.00 | 0.00 | 0.00 | 8 | 915.9 |
| 20260509210921 | 98 | 168 | 2.0 | 8.0 | 0.00 | 0.00 | 0.00 | 8 | 916.0 |
| 20260509210816 | 98 | 227 | 2.0 | 8.0 | 0.00 | 0.00 | 0.00 | 8 | 916.1 |
| 20260509210709 | 98 | 232 | 1.0 | 8.0 | 0.00 | 0.00 | 0.00 | 8 | 916.1 |
| 20260509210604 | 98 | 228 | 1.0 | 6.0 | 0.00 | 0.00 | 0.00 | 8 | 916.1 |
| 20260509210458 | 98 | 186 | 0.0 | 4.0 | 0.00 | 0.00 | 0.00 | 8 | 916.1 |
| 20260509210356 | 98 | 255 | 1.0 | 4.0 | 0.00 | 0.00 | 0.00 | 8 | 916.0 |
| 20260509210253 | 98 | 288 | 1.0 | 4.0 | 0.00 | 0.00 | 0.00 | 9 | 916.1 |
| 20260509210151 | 98 | 90 | 1.0 | 8.0 | 0.00 | 0.00 | 0.00 | 9 | 916.1 |
| 20260509210044 | 98 | 187 | 1.0 | 8.0 | 0.00 | 0.00 | 0.00 | 8 | 916.1 |
| 20260509205938 | 98 | 218 | 1.0 | 8.0 | 0.00 | 0.00 | 0.00 | 8 | 916.1 |
| 20260509205833 | 98 | 25 | 2.0 | 8.0 | 0.00 | 0.00 | 0.00 | 8 | 916.1 |
| 20260509205729 | 98 | 342 | 2.0 | 8.0 | 0.00 | 0.00 | 0.00 | 8 | 916.1 |
| 20260509205624 | 98 | 220 | 2.0 | 8.0 | 0.00 | 0.00 | 0.00 | 8 | 916.1 |
| 20260509205520 | 98 | 234 | 2.0 | 8.0 | 0.00 | 0.00 | 0.00 | 9 | 916.2 |
| 20260509205155 | 98 | 183 | 3.0 | 8.0 | 0.00 | 0.00 | 0.00 | 8 | 916.2 |
| 20260509204828 | 98 | 196 | 3.0 | 8.0 | 0.00 | 0.00 | 0.00 | 8 | 916.2 |
| 20260509204726 | 98 | 232 | 2.0 | 8.0 | 0.00 | 0.00 | 0.00 | 8 | 916.2 |
| 20260509204401 | 98 | 238 | 1.0 | 8.0 | 0.00 | 0.00 | 0.00 | 9 | 916.1 |
| 20260509204257 | 98 | 221 | 1.0 | 8.0 | 0.00 | 0.00 | 0.00 | 8 | 916.2 |
| 20260509204153 | 98 | 305 | 1.0 | 7.0 | 0.00 | 0.00 | 0.00 | 9 | 916.2 |
| 20260509204051 | 97 | 244 | 1.0 | 7.0 | 0.00 | 0.00 | 0.00 | 9 | 916.2 |
| 20260509203947 | 97 | 266 | 1.0 | 7.0 | 0.00 | 0.00 | 0.00 | 9 | 916.2 |
| 20260509203841 | 97 | 304 | 1.0 | 7.0 | 0.00 | 0.00 | 0.00 | 9 | 916.2 |
| 20260509203517 | 97 | 200 | 1.0 | 7.0 | 0.00 | 0.00 | 0.00 | 8 | 916.2 |
| 20260509202932 | 96 | 225 | 1.0 | 5.0 | 0.00 | 0.00 | 0.00 | 9 | 916.3 |
| 20260509202826 | 96 | 23 | 0.0 | 5.0 | 0.00 | 0.00 | 0.00 | 9 | 916.3 |
| 20260509202722 | 96 | 132 | 0.0 | 5.0 | 0.00 | 0.00 | 0.00 | 9 | 916.3 |
| 20260509202615 | 96 | 311 | 0.0 | 5.0 | 0.00 | 0.00 | 0.00 | 9 | 916.3 |
| 20260509202507 | 96 | 153 | 1.0 | 5.0 | 0.00 | 0.00 | 0.00 | 9 | 916.3 |
| 20260509202404 | 96 | 158 | 1.0 | 5.0 | 0.00 | 0.00 | 0.00 | 8 | 916.3 |
| 20260509201559 | 96 | 217 | 2.0 | 8.0 | 0.00 | 0.00 | 0.00 | 10 | 916.5 |
| 20260509201453 | 96 | 238 | 2.0 | 8.0 | 0.00 | 0.00 | 0.00 | 10 | 916.4 |
| 20260509201345 | 96 | 166 | 3.0 | 8.0 | 0.00 | 0.00 | 0.00 | 9 | 916.5 |
| 20260509201241 | 96 | 213 | 3.0 | 8.0 | 0.00 | 0.00 | 0.00 | 9 | 916.5 |
| 20260509201135 | 96 | 227 | 3.0 | 8.0 | 0.00 | 0.00 | 0.00 | 9 | 916.5 |
| 20260509201033 | 96 | 240 | 2.0 | 8.0 | 0.00 | 0.00 | 0.00 | 9 | 916.5 |
| 20260509200928 | 96 | 220 | 2.0 | 8.0 | 0.00 | 0.00 | 0.00 | 9 | 916.5 |
| 20260509200825 | 96 | 211 | 2.0 | 8.0 | 0.00 | 0.00 | 0.00 | 9 | 916.5 |
| 20260509200719 | 96 | 169 | 3.0 | 8.0 | 0.00 | 0.00 | 0.00 | 9 | 916.6 |
| 20260509200358 | 96 | 179 | 2.0 | 8.0 | 0.00 | 0.00 | 0.00 | 9 | 916.6 |
| 20260509200255 | 96 | 191 | 2.0 | 8.0 | 0.00 | 0.00 | 0.00 | 9 | 916.6 |
| 20260509200149 | 97 | 219 | 2.0 | 7.0 | 0.00 | 0.00 | 0.00 | 9 | 916.6 |
| 20260509200046 | 97 | 175 | 2.0 | 7.0 | 0.00 | 0.00 | 0.00 | 9 | 916.6 |
| 20260509195941 | 97 | 225 | 2.0 | 7.0 | 0.00 | 0.00 | 0.00 | 9 | 916.6 |
| 20260509195837 | 97 | 213 | 2.0 | 7.0 | 0.00 | 0.00 | 0.00 | 9 | 916.7 |
| 20260509195733 | 97 | 205 | 2.0 | 7.0 | 0.00 | 0.00 | 0.00 | 9 | 916.7 |
| 20260509195629 | 97 | 221 | 1.0 | 5.0 | 0.00 | 0.00 | 0.00 | 9 | 916.7 |
| 20260509195301 | 96 | 183 | 0.0 | 8.0 | 0.00 | 0.00 | 0.00 | 9 | 916.8 |
| 20260509195156 | 96 | 213 | 0.0 | 8.0 | 0.00 | 0.00 | 0.00 | 9 | 916.7 |
| 20260509195051 | 96 | 234 | 0.0 | 8.0 | 0.00 | 0.00 | 0.00 | 9 | 916.8 |
| 20260509194946 | 96 | 292 | 0.0 | 8.0 | 0.00 | 0.00 | 0.00 | 9 | 916.8 |
| 20260509194843 | 96 | 15 | 0.0 | 8.0 | 0.00 | 0.00 | 0.00 | 9 | 916.8 |
| 20260509194739 | 95 | 34 | 0.0 | 8.0 | 0.00 | 0.00 | 0.00 | 9 | 916.8 |
| 20260509194634 | 95 | 139 | 1.0 | 8.0 | 0.00 | 0.00 | 0.00 | 10 | 916.8 |
| 20260509194531 | 95 | 140 | 2.0 | 8.0 | 0.00 | 0.00 | 0.00 | 9 | 916.8 |
| 20260509194206 | 95 | 279 | 2.0 | 8.0 | 0.00 | 0.00 | 0.00 | 10 | 916.9 |
| 20260509194059 | 95 | 254 | 2.0 | 8.0 | 0.00 | 0.00 | 0.00 | 9 | 916.8 |
| 20260509193951 | 95 | 296 | 2.0 | 8.0 | 0.00 | 0.00 | 0.00 | 9 | 916.9 |
| 20260509193844 | 95 | 207 | 2.0 | 8.0 | 0.00 | 0.00 | 0.00 | 9 | 916.9 |
| 20260509193741 | 95 | 219 | 2.0 | 8.0 | 0.00 | 0.00 | 0.00 | 9 | 916.9 |
| 20260509193634 | 95 | 223 | 1.0 | 8.0 | 0.00 | 0.00 | 0.00 | 9 | 916.9 |
| 20260509193531 | 95 | 200 | 1.0 | 8.0 | 0.00 | 0.00 | 0.00 | 10 | 916.9 |
| 20260509193428 | 95 | 231 | 0.0 | 8.0 | 0.00 | 0.00 | 0.00 | 10 | 916.9 |
| 20260509193322 | 95 | 236 | 0.0 | 8.0 | 0.00 | 0.00 | 0.00 | 10 | 916.9 |
| 20260509193217 | 95 | 229 | 1.0 | 8.0 | 0.00 | 0.00 | 0.00 | 9 | 916.9 |
| 20260509193111 | 95 | 211 | 1.0 | 8.0 | 0.00 | 0.00 | 0.00 | 9 | 917.0 |
| 20260509193008 | 95 | 240 | 1.0 | 8.0 | 0.00 | 0.00 | 0.00 | 9 | 917.0 |
| 20260509192905 | 95 | 219 | 1.0 | 8.0 | 0.00 | 0.00 | 0.00 | 9 | 916.9 |
| 20260509192802 | 94 | 79 | 2.0 | 8.0 | 0.00 | 0.00 | 0.00 | 9 | 917.0 |
| 20260509192656 | 94 | 175 | 2.0 | 8.0 | 0.00 | 0.00 | 0.00 | 10 | 917.0 |
| 20260509192335 | 94 | 226 | 2.0 | 8.0 | 0.00 | 0.00 | 0.00 | 10 | 917.1 |
| 20260509192228 | 94 | 206 | 2.0 | 8.0 | 0.00 | 0.00 | 0.00 | 9 | 917.1 |
| 20260509192122 | 94 | 208 | 2.0 | 8.0 | 0.00 | 0.00 | 0.00 | 9 | 917.1 |
| 20260509192017 | 94 | 225 | 2.0 | 8.0 | 0.00 | 0.00 | 0.00 | 9 | 917.1 |
| 20260509191913 | 94 | 229 | 2.0 | 8.0 | 0.00 | 0.00 | 0.00 | 10 | 917.1 |
| 20260509191806 | 94 | 198 | 2.0 | 8.0 | 0.00 | 0.00 | 0.00 | 10 | 917.1 |
| 20260509191704 | 94 | 203 | 1.0 | 8.0 | 0.00 | 0.00 | 0.00 | 10 | 917.1 |
| 20260509191601 | 94 | 200 | 1.0 | 8.0 | 0.00 | 0.00 | 0.00 | 10 | 917.1 |
| 20260509191456 | 94 | 269 | 1.0 | 5.0 | 0.00 | 0.00 | 0.00 | 10 | 917.1 |
| 20260509191350 | 94 | 294 | 2.0 | 5.0 | 0.00 | 0.00 | 0.00 | 10 | 917.1 |
| 20260509191246 | 94 | 281 | 2.0 | 8.0 | 0.00 | 0.00 | 0.00 | 10 | 917.1 |
| 20260509191142 | 94 | 259 | 2.0 | 8.0 | 0.00 | 0.00 | 0.00 | 10 | 917.2 |
| 20260509191039 | 94 | 209 | 2.0 | 8.0 | 0.00 | 0.00 | 0.00 | 9 | 917.2 |
| 20260509190717 | 93 | 205 | 3.0 | 8.0 | 0.00 | 0.00 | 0.00 | 10 | 917.3 |
| 20260509190614 | 93 | 229 | 2.0 | 8.0 | 0.00 | 0.00 | 0.00 | 10 | 917.3 |
| 20260509190510 | 93 | 217 | 2.0 | 8.0 | 0.00 | 0.00 | 0.00 | 10 | 917.3 |
| 20260509190406 | 93 | 182 | 3.0 | 8.0 | 0.00 | 0.00 | 0.00 | 10 | 917.3 |
| 20260509190036 | 93 | 209 | 3.0 | 8.0 | 0.00 | 0.00 | 0.00 | 10 | 917.4 |
| 20260509185929 | 93 | 225 | 2.0 | 8.0 | 0.00 | 0.00 | 0.00 | 10 | 917.4 |
| 20260509185825 | 93 | 230 | 2.0 | 8.0 | 0.00 | 0.00 | 0.00 | 10 | 917.4 |
| 20260509185723 | 93 | 234 | 2.0 | 8.0 | 0.00 | 0.00 | 0.00 | 10 | 917.4 |
| 20260509185618 | 93 | 205 | 2.0 | 8.0 | 0.00 | 0.00 | 0.00 | 10 | 917.4 |
| 20260509185516 | 93 | 230 | 2.0 | 8.0 | 0.00 | 0.00 | 0.00 | 10 | 917.4 |
| 20260509185414 | 93 | 234 | 2.0 | 8.0 | 0.00 | 0.00 | 0.00 | 10 | 917.4 |
| 20260509185310 | 93 | 229 | 1.0 | 8.0 | 0.00 | 0.00 | 0.00 | 10 | 917.4 |
| 20260509185206 | 93 | 236 | 1.0 | 4.0 | 0.00 | 0.00 | 0.00 | 10 | 917.4 |
| 20260509184839 | 93 | 5 | 0.0 | 4.0 | 0.00 | 0.00 | 0.00 | 10 | 917.3 |
| 20260509184257 | 93 | 259 | 1.0 | 4.0 | 0.00 | 0.00 | 0.00 | 11 | 917.4 |
| 20260509184152 | 93 | 205 | 1.0 | 4.0 | 0.00 | 0.00 | 0.00 | 11 | 917.4 |
| 20260509184049 | 93 | 200 | 1.0 | 7.0 | 0.00 | 0.00 | 0.00 | 10 | 917.5 |
| 20260509183944 | 92 | 262 | 1.0 | 7.0 | 0.00 | 0.00 | 0.00 | 12 | 917.5 |
| 20260509183621 | 92 | 314 | 1.0 | 7.0 | 0.00 | 0.00 | 0.00 | 11 | 917.5 |
| 20260509183514 | 92 | 307 | 1.0 | 7.0 | 0.00 | 0.00 | 0.00 | 11 | 917.5 |
| 20260509183407 | 92 | 259 | 1.0 | 7.0 | 0.00 | 0.00 | 0.00 | 11 | 917.5 |
| 20260509183304 | 92 | 244 | 1.0 | 7.0 | 0.00 | 0.00 | 0.00 | 11 | 917.5 |
| 20260509183201 | 92 | 237 | 1.0 | 7.0 | 0.00 | 0.00 | 0.00 | 12 | 917.5 |
| 20260509183052 | 92 | 241 | 1.0 | 7.0 | 0.00 | 0.00 | 0.00 | 11 | 917.5 |
| 20260509182943 | 92 | 228 | 2.0 | 7.0 | 0.00 | 0.00 | 0.00 | 11 | 917.5 |
| 20260509182621 | 92 | 176 | 2.0 | 7.0 | 0.00 | 0.00 | 0.00 | 11 | 917.6 |
| 20260509182516 | 92 | 195 | 2.0 | 7.0 | 0.00 | 0.00 | 0.00 | 11 | 917.6 |
| 20260509182408 | 92 | 208 | 2.0 | 7.0 | 0.00 | 0.00 | 0.00 | 11 | 917.5 |
| 20260509182302 | 92 | 203 | 1.0 | 7.0 | 0.00 | 0.00 | 0.00 | 11 | 917.6 |
| 20260509181940 | 91 | 260 | 1.0 | 4.0 | 0.00 | 0.00 | 0.00 | 11 | 917.6 |
| 20260509181832 | 91 | 261 | 1.0 | 3.0 | 0.00 | 0.00 | 0.00 | 11 | 917.6 |
| 20260509181725 | 91 | 280 | 1.0 | 3.0 | 0.00 | 0.00 | 0.00 | 11 | 917.6 |
| 20260509181618 | 91 | 265 | 1.0 | 3.0 | 0.00 | 0.00 | 0.00 | 10 | 917.6 |
| 20260509181512 | 91 | 264 | 1.0 | 3.0 | 0.00 | 0.00 | 0.00 | 10 | 917.6 |
| 20260509181404 | 91 | 323 | 1.0 | 3.0 | 0.00 | 0.00 | 0.00 | 10 | 917.6 |
| 20260509180814 | 91 | 220 | 1.0 | 5.0 | 0.00 | 0.00 | 0.00 | 11 | 917.6 |
| 20260509180710 | 90 | 219 | 1.0 | 5.0 | 0.00 | 0.00 | 0.00 | 12 | 917.7 |
| 20260509180607 | 90 | 271 | 1.0 | 5.0 | 0.00 | 0.00 | 0.00 | 11 | 917.7 |
| 20260509180237 | 90 | 246 | 1.0 | 5.0 | 0.00 | 0.00 | 0.00 | 11 | 917.7 |
| 20260509180134 | 90 | 262 | 1.0 | 5.0 | 0.00 | 0.00 | 0.00 | 11 | 917.7 |
| 20260509180029 | 90 | 256 | 1.0 | 5.0 | 0.00 | 0.00 | 0.00 | 11 | 917.7 |
| 20260509175927 | 90 | 302 | 1.0 | 6.0 | 0.00 | 0.00 | 0.00 | 11 | 917.7 |
| 20260509175825 | 90 | 278 | 1.0 | 6.0 | 0.00 | 0.00 | 0.00 | 11 | 917.7 |
| 20260509175721 | 90 | 320 | 1.0 | 6.0 | 0.00 | 0.00 | 0.00 | 11 | 917.7 |
| 20260509175619 | 90 | 234 | 1.0 | 6.0 | 0.00 | 0.00 | 0.00 | 11 | 917.7 |
| 20260509175517 | 90 | 125 | 2.0 | 6.0 | 0.00 | 0.00 | 0.00 | 11 | 917.7 |
| 20260509175415 | 90 | 158 | 2.0 | 6.0 | 0.00 | 0.00 | 0.00 | 11 | 917.7 |
| 20260509175311 | 90 | 158 | 2.0 | 6.0 | 0.00 | 0.00 | 0.00 | 11 | 917.7 |
| 20260509175207 | 90 | 191 | 2.0 | 6.0 | 0.00 | 0.00 | 0.00 | 11 | 917.7 |
| 20260509175104 | 90 | 222 | 2.0 | 6.0 | 0.00 | 0.00 | 0.00 | 11 | 917.7 |
| 20260509174958 | 90 | 221 | 2.0 | 6.0 | 0.00 | 0.00 | 0.00 | 11 | 917.7 |
| 20260509174850 | 90 | 218 | 2.0 | 6.0 | 0.00 | 0.00 | 0.00 | 11 | 917.8 |
| 20260509174527 | 90 | 212 | 2.0 | 6.0 | 0.00 | 0.00 | 0.00 | 11 | 917.8 |
| 20260509174422 | 90 | 241 | 1.0 | 6.0 | 0.00 | 0.00 | 0.00 | 11 | 917.8 |
| 20260509174314 | 90 | 229 | 1.0 | 6.0 | 0.00 | 0.00 | 0.00 | 11 | 917.8 |
| 20260509174212 | 90 | 257 | 1.0 | 6.0 | 0.00 | 0.00 | 0.00 | 11 | 917.9 |
| 20260509173627 | 89 | 232 | 1.0 | 6.0 | 0.00 | 0.00 | 0.00 | 12 | 917.8 |
| 20260509173524 | 89 | 227 | 0.0 | 6.0 | 0.00 | 0.00 | 0.00 | 12 | 917.8 |
| 20260509173417 | 89 | 294 | 0.0 | 6.0 | 0.00 | 0.00 | 0.00 | 12 | 917.9 |
| 20260509173312 | 89 | 298 | 1.0 | 6.0 | 0.00 | 0.00 | 0.00 | 13 | 917.9 |
| 20260509173205 | 89 | 248 | 1.0 | 6.0 | 0.00 | 0.00 | 0.00 | 13 | 917.9 |
| 20260509172842 | 88 | 315 | 1.0 | 6.0 | 0.00 | 0.00 | 0.00 | 12 | 917.9 |
| 20260509172738 | 88 | 311 | 1.0 | 6.0 | 0.00 | 0.00 | 0.00 | 12 | 917.8 |
| 20260509172636 | 88 | 23 | 1.0 | 6.0 | 0.00 | 0.00 | 0.00 | 12 | 917.8 |
| 20260509172534 | 88 | 278 | 1.0 | 6.0 | 0.00 | 0.00 | 0.00 | 13 | 917.8 |
| 20260509172210 | 88 | 229 | 1.0 | 6.0 | 0.00 | 0.00 | 0.00 | 13 | 917.9 |
| 20260509172105 | 88 | 255 | 1.0 | 6.0 | 0.00 | 0.00 | 0.00 | 13 | 917.9 |
| 20260509171958 | 88 | 296 | 1.0 | 6.0 | 0.00 | 0.00 | 0.00 | 13 | 917.8 |
| 20260509171854 | 88 | 232 | 1.0 | 6.0 | 0.00 | 0.00 | 0.00 | 12 | 917.8 |
| 20260509171749 | 87 | 298 | 1.0 | 6.0 | 0.00 | 0.00 | 0.00 | 12 | 917.8 |
| 20260509171647 | 87 | 237 | 1.0 | 6.0 | 0.00 | 0.00 | 0.00 | 12 | 917.8 |
| 20260509171545 | 87 | 326 | 1.0 | 6.0 | 0.00 | 0.00 | 0.00 | 12 | 917.9 |
| 20260509171438 | 87 | 265 | 1.0 | 6.0 | 0.00 | 0.00 | 0.00 | 12 | 917.9 |
| 20260509171330 | 87 | 278 | 1.0 | 6.0 | 0.00 | 0.00 | 0.00 | 13 | 917.9 |
| 20260509171226 | 87 | 261 | 1.0 | 6.0 | 0.00 | 0.00 | 0.00 | 12 | 917.9 |
| 20260509171123 | 87 | 202 | 1.0 | 6.0 | 0.00 | 0.00 | 0.00 | 12 | 917.8 |
| 20260509171020 | 87 | 288 | 1.0 | 6.0 | 0.00 | 0.00 | 0.00 | 12 | 917.9 |
| 20260509170913 | 87 | 302 | 1.0 | 6.0 | 0.00 | 0.00 | 0.00 | 13 | 917.9 |
| 20260509170808 | 87 | 273 | 1.0 | 6.0 | 0.00 | 0.00 | 0.00 | 12 | 917.9 |
| 20260509170701 | 87 | 301 | 2.0 | 6.0 | 0.00 | 0.00 | 0.00 | 12 | 917.8 |
| 20260509170556 | 87 | 278 | 2.0 | 6.0 | 0.00 | 0.00 | 0.00 | 12 | 917.9 |
| 20260509170452 | 86 | 276 | 2.0 | 6.0 | 0.00 | 0.00 | 0.00 | 13 | 917.9 |
| 20260509170350 | 86 | 227 | 2.0 | 6.0 | 0.00 | 0.00 | 0.00 | 13 | 917.8 |
| 20260509170246 | 86 | 233 | 2.0 | 6.0 | 0.00 | 0.00 | 0.00 | 13 | 917.9 |
| 20260509170144 | 86 | 219 | 2.0 | 6.0 | 0.00 | 0.00 | 0.00 | 13 | 917.9 |
| 20260509170039 | 86 | 250 | 2.0 | 6.0 | 0.00 | 0.00 | 0.00 | 13 | 917.9 |
| 20260509165712 | 86 | 287 | 1.0 | 6.0 | 0.00 | 0.00 | 0.00 | 13 | 917.9 |
| 20260509165606 | 86 | 243 | 1.0 | 6.0 | 0.00 | 0.00 | 0.00 | 13 | 917.9 |
| 20260509165501 | 86 | 242 | 1.0 | 6.0 | 0.00 | 0.00 | 0.00 | 13 | 917.8 |
| 20260509165359 | 86 | 262 | 2.0 | 6.0 | 0.00 | 0.00 | 0.00 | 13 | 917.9 |
| 20260509165252 | 86 | 255 | 2.0 | 6.0 | 0.00 | 0.00 | 0.00 | 13 | 917.9 |
| 20260509165148 | 86 | 240 | 2.0 | 6.0 | 0.00 | 0.00 | 0.00 | 13 | 917.9 |
| 20260509165042 | 85 | 267 | 2.0 | 6.0 | 0.00 | 0.00 | 0.00 | 13 | 917.9 |
| 20260509164936 | 85 | 252 | 2.0 | 6.0 | 0.00 | 0.00 | 0.00 | 14 | 917.8 |
| 20260509164829 | 85 | 306 | 2.0 | 6.0 | 0.00 | 0.00 | 0.00 | 13 | 917.8 |
| 20260509164722 | 85 | 267 | 2.0 | 6.0 | 0.00 | 0.00 | 0.00 | 13 | 917.8 |
| 20260509164615 | 85 | 207 | 2.0 | 6.0 | 0.00 | 0.00 | 0.00 | 13 | 917.8 |
| 20260509164509 | 85 | 225 | 2.0 | 6.0 | 0.00 | 0.00 | 0.00 | 13 | 917.8 |
| 20260509164402 | 85 | 215 | 1.0 | 6.0 | 0.00 | 0.00 | 0.00 | 14 | 917.8 |
| 20260509164032 | 85 | 292 | 1.0 | 5.0 | 0.00 | 0.00 | 0.00 | 14 | 917.8 |
| 20260509163710 | 85 | 289 | 1.0 | 5.0 | 0.00 | 0.00 | 0.00 | 14 | 917.8 |
| 20260509163604 | 85 | 245 | 1.0 | 5.0 | 0.00 | 0.00 | 0.00 | 14 | 917.9 |
| 20260509163241 | 84 | 258 | 1.0 | 5.0 | 0.00 | 0.00 | 0.00 | 15 | 917.9 |
| 20260509163137 | 84 | 242 | 1.0 | 5.0 | 0.00 | 0.00 | 0.00 | 15 | 917.9 |
| 20260509163029 | 84 | 262 | 1.0 | 5.0 | 0.00 | 0.00 | 0.00 | 15 | 917.9 |
| 20260509162926 | 84 | 249 | 1.0 | 5.0 | 0.00 | 0.00 | 0.00 | 15 | 917.9 |
| 20260509162818 | 84 | 269 | 1.0 | 5.0 | 0.00 | 0.00 | 0.00 | 15 | 917.9 |
| 20260509162711 | 84 | 266 | 1.0 | 5.0 | 0.00 | 0.00 | 0.00 | 15 | 917.9 |
| 20260509162608 | 84 | 244 | 2.0 | 5.0 | 0.00 | 0.00 | 0.00 | 16 | 917.9 |
| 20260509162501 | 84 | 272 | 2.0 | 5.0 | 0.00 | 0.00 | 0.00 | 15 | 917.9 |
| 20260509162356 | 84 | 292 | 2.0 | 5.0 | 0.00 | 0.00 | 0.00 | 15 | 917.9 |
| 20260509162029 | 84 | 248 | 2.0 | 5.0 | 0.00 | 0.00 | 0.00 | 15 | 917.9 |
| 20260509161925 | 84 | 253 | 2.0 | 5.0 | 0.00 | 0.00 | 0.00 | 16 | 918.0 |
| 20260509161819 | 84 | 251 | 2.0 | 5.0 | 0.00 | 0.00 | 0.00 | 15 | 917.9 |
| 20260509161712 | 84 | 241 | 1.0 | 5.0 | 0.00 | 0.00 | 0.00 | 15 | 918.0 |
| 20260509161610 | 84 | 242 | 1.0 | 5.0 | 0.00 | 0.00 | 0.00 | 16 | 917.9 |
| 20260509161503 | 84 | 331 | 1.0 | 5.0 | 0.00 | 0.00 | 0.00 | 15 | 918.0 |
| 20260509161357 | 84 | 319 | 1.0 | 5.0 | 0.00 | 0.00 | 0.00 | 15 | 917.9 |
| 20260509161252 | 84 | 318 | 1.0 | 5.0 | 0.00 | 0.00 | 0.00 | 15 | 917.9 |
| 20260509161147 | 83 | 264 | 1.0 | 5.0 | 0.00 | 0.00 | 0.00 | 15 | 917.9 |
| 20260509160822 | 83 | 253 | 0.0 | 3.0 | 0.00 | 0.00 | 0.00 | 16 | 917.9 |
| 20260509160500 | 83 | 271 | 0.0 | 2.0 | 0.00 | 0.00 | 0.00 | 15 | 917.9 |
| 20260509160357 | 83 | 275 | 0.0 | 2.0 | 0.00 | 0.00 | 0.00 | 16 | 917.8 |
| 20260509160254 | 83 | 208 | 0.0 | 2.0 | 0.00 | 0.00 | 0.00 | 15 | 917.9 |
| 20260509160150 | 83 | 207 | 0.0 | 2.0 | 0.00 | 0.00 | 0.00 | 15 | 917.9 |
| 20260509155602 | 83 | 259 | 0.0 | 2.0 | 0.00 | 0.00 | 0.00 | 17 | 917.9 |
| 20260509155456 | 83 | 244 | 0.0 | 2.0 | 0.00 | 0.00 | 0.00 | 16 | 917.9 |
| 20260509155349 | 83 | 207 | 0.0 | 2.0 | 0.00 | 0.00 | 0.00 | 16 | 917.9 |
| 20260509155246 | 83 | 202 | 0.0 | 2.0 | 0.00 | 0.00 | 0.00 | 17 | 917.9 |
| 20260509155142 | 83 | 236 | 0.0 | 0.0 | 0.00 | 0.00 | 0.00 | 18 | 917.9 |
| 20260509155034 | 82 | 236 | 0.0 | 0.0 | 0.00 | 0.00 | 0.00 | 18 | 917.9 |
| 20260509154930 | 82 | 238 | 0.0 | 0.0 | 0.00 | 0.00 | 0.00 | 18 | 917.9 |
| 20260509154826 | 82 | 238 | 0.0 | 0.0 | 0.00 | 0.00 | 0.00 | 18 | 917.9 |
| 20260509154721 | 82 | 238 | 0.0 | 0.0 | 0.00 | 0.00 | 0.00 | 18 | 917.9 |
| 20260509154358 | 82 | 241 | 0.0 | 1.0 | 0.00 | 0.00 | 0.00 | 18 | 917.9 |
| 20260509154034 | 81 | 236 | 0.0 | 1.0 | 0.00 | 0.00 | 0.00 | 19 | 917.9 |
| 20260509153927 | 81 | 236 | 0.0 | 1.0 | 0.00 | 0.00 | 0.00 | 18 | 917.9 |
| 20260509153342 | 81 | 215 | 0.0 | 1.0 | 0.00 | 0.00 | 0.00 | 18 | 917.9 |
| 20260509153238 | 81 | 215 | 0.0 | 1.0 | 0.00 | 0.00 | 0.00 | 18 | 917.9 |
| 20260509153133 | 81 | 215 | 0.0 | 1.0 | 0.00 | 0.00 | 0.00 | 19 | 917.9 |
| 20260509152546 | 80 | 215 | 0.0 | 0.0 | 0.00 | 0.00 | 0.00 | 19 | 917.9 |
| 20260509152223 | 80 | 215 | 0.0 | 2.0 | 0.00 | 0.00 | 0.00 | 18 | 917.8 |
| 20260509152115 | 79 | 215 | 0.0 | 2.0 | 0.00 | 0.00 | 0.00 | 19 | 917.8 |
| 20260509152008 | 79 | 213 | 0.0 | 1.0 | 0.00 | 0.00 | 0.00 | 19 | 917.9 |
| 20260509151906 | 79 | 225 | 0.0 | 2.0 | 0.00 | 0.00 | 0.00 | 19 | 917.9 |
| 20260509151539 | 79 | 243 | 0.0 | 1.0 | 0.00 | 0.00 | 0.00 | 20 | 917.8 |
| 20260509151213 | 78 | 281 | 0.0 | 0.0 | 0.00 | 0.00 | 0.00 | 21 | 917.9 |
| 20260509151106 | 78 | 281 | 0.0 | 0.0 | 0.00 | 0.00 | 0.00 | 20 | 917.8 |
| 20260509151002 | 78 | 281 | 0.0 | 0.0 | 0.00 | 0.00 | 0.00 | 20 | 917.8 |
| 20260509150857 | 78 | 28 | 0.0 | 0.0 | 0.00 | 0.00 | 0.00 | 20 | 917.8 |
| 20260509150751 | 78 | 148 | 0.0 | 0.0 | 0.00 | 0.00 | 0.00 | 20 | 917.8 |
| 20260509150645 | 78 | 226 | 0.0 | 0.0 | 0.00 | 0.00 | 0.00 | 21 | 917.8 |
| 20260509150540 | 78 | 226 | 0.0 | 0.0 | 0.00 | 0.00 | 0.00 | 21 | 917.8 |
| 20260509150437 | 78 | 226 | 0.0 | 0.0 | 0.00 | 0.00 | 0.00 | 21 | 917.8 |
| 20260509150333 | 77 | 226 | 0.0 | 0.0 | 0.00 | 0.00 | 0.00 | 21 | 917.8 |
| 20260509150231 | 77 | 226 | 0.0 | 0.0 | 0.00 | 0.00 | 0.00 | 20 | 917.8 |
| 20260509150126 | 77 | 226 | 0.0 | 0.0 | 0.00 | 0.00 | 0.00 | 20 | 917.8 |
| 20260509145802 | 77 | 226 | 0.0 | 0.0 | 0.00 | 0.00 | 0.00 | 21 | 917.8 |
| 20260509145657 | 77 | 226 | 0.0 | 0.0 | 0.00 | 0.00 | 0.00 | 21 | 917.8 |
| 20260509145112 | 76 | 226 | 0.0 | 1.0 | 0.00 | 0.00 | 0.00 | 21 | 917.8 |
| 20260509144744 | 75 | 226 | 0.0 | 0.0 | 0.00 | 0.00 | 0.00 | 22 | 917.7 |
| 20260509144640 | 75 | 226 | 0.0 | 0.0 | 0.00 | 0.00 | 0.00 | 22 | 917.7 |
| 20260509144315 | 75 | 226 | 0.0 | 0.0 | 0.00 | 0.00 | 0.00 | 23 | 917.7 |
| 20260509144212 | 75 | 226 | 0.0 | 0.0 | 0.00 | 0.00 | 0.00 | 23 | 917.7 |
| 20260509143845 | 74 | 226 | 0.0 | 0.0 | 0.00 | 0.00 | 0.00 | 23 | 917.7 |
| 20260509143739 | 74 | 226 | 0.0 | 0.0 | 0.00 | 0.00 | 0.00 | 23 | 917.7 |
| 20260509143634 | 74 | 226 | 0.0 | 0.0 | 0.00 | 0.00 | 0.00 | 24 | 917.7 |
| 20260509143525 | 74 | 226 | 0.0 | 0.0 | 0.00 | 0.00 | 0.00 | 22 | 917.8 |
| 20260509143200 | 73 | 226 | 0.0 | 0.0 | 0.00 | 0.00 | 0.00 | 22 | 917.7 |
| 20260509142355 | 72 | 226 | 0.0 | 1.0 | 0.00 | 0.00 | 0.00 | 24 | 917.7 |
| 20260509142252 | 72 | 226 | 0.0 | 1.0 | 0.00 | 0.00 | 0.00 | 24 | 917.7 |
| 20260509142148 | 72 | 226 | 0.0 | 1.0 | 0.00 | 0.00 | 0.00 | 24 | 917.7 |
| 20260509142042 | 72 | 224 | 0.0 | 1.0 | 0.00 | 0.00 | 0.00 | 24 | 917.7 |
| 20260509141939 | 72 | 226 | 0.0 | 1.0 | 0.00 | 0.00 | 0.00 | 25 | 917.7 |
| 20260509141613 | 71 | 226 | 0.0 | 1.0 | 0.00 | 0.00 | 0.00 | 25 | 917.8 |
| 20260509141509 | 71 | 226 | 0.0 | 1.0 | 0.00 | 0.00 | 0.00 | 25 | 917.8 |
| 20260509141403 | 71 | 226 | 0.0 | 1.0 | 0.00 | 0.00 | 0.00 | 24 | 917.8 |
| 20260509141258 | 71 | 226 | 0.0 | 1.0 | 0.00 | 0.00 | 0.00 | 26 | 917.8 |
| 20260509141153 | 71 | 226 | 0.0 | 1.0 | 0.00 | 0.00 | 0.00 | 26 | 917.8 |
| 20260509141047 | 70 | 225 | 0.0 | 0.0 | 0.00 | 0.00 | 0.00 | 25 | 917.8 |
| 20260509140940 | 70 | 225 | 0.0 | 0.0 | 0.00 | 0.00 | 0.00 | 25 | 917.7 |
| 20260509140833 | 70 | 225 | 0.0 | 0.0 | 0.00 | 0.00 | 0.00 | 26 | 917.8 |
| 20260509140729 | 70 | 225 | 0.0 | 0.0 | 0.00 | 0.00 | 0.00 | 27 | 917.7 |
| 20260509140404 | 70 | 225 | 0.0 | 0.0 | 0.00 | 0.00 | 0.00 | 26 | 917.7 |
| 20260509140257 | 70 | 225 | 0.0 | 0.0 | 0.00 | 0.00 | 0.00 | 26 | 917.7 |
| 20260509140153 | 69 | 225 | 0.0 | 0.0 | 0.00 | 0.00 | 0.00 | 26 | 917.6 |
| 20260509140050 | 69 | 225 | 0.0 | 0.0 | 0.00 | 0.00 | 0.00 | 26 | 917.6 |
| 20260509135943 | 69 | 225 | 0.0 | 0.0 | 0.00 | 0.00 | 0.00 | 26 | 917.7 |
| 20260509135838 | 69 | 225 | 0.0 | 0.0 | 0.00 | 0.00 | 0.00 | 26 | 917.6 |
| 20260509135735 | 69 | 225 | 0.0 | 2.0 | 0.00 | 0.00 | 0.00 | 26 | 917.7 |
| 20260509135631 | 69 | 225 | 0.0 | 2.0 | 0.00 | 0.00 | 0.00 | 26 | 917.7 |
| 20260509135524 | 69 | 225 | 0.0 | 2.0 | 0.00 | 0.00 | 0.00 | 26 | 917.6 |
| 20260509135417 | 68 | 227 | 0.0 | 2.0 | 0.00 | 0.00 | 0.00 | 26 | 917.6 |
| 20260509135314 | 68 | 177 | 0.0 | 1.0 | 0.00 | 0.00 | 0.00 | 26 | 917.6 |
| 20260509135212 | 68 | 90 | 0.0 | 0.0 | 0.00 | 0.00 | 0.00 | 26 | 917.5 |
| 20260509135106 | 68 | 90 | 0.0 | 0.0 | 0.00 | 0.00 | 0.00 | 26 | 917.5 |
| 20260509134746 | 68 | 90 | 0.0 | 0.0 | 0.00 | 0.00 | 0.00 | 27 | 917.5 |
| 20260509134424 | 68 | 90 | 0.0 | 0.0 | 0.00 | 0.00 | 0.00 | 27 | 917.4 |
| 20260509134321 | 67 | 90 | 0.0 | 0.0 | 0.00 | 0.00 | 0.00 | 26 | 917.4 |
| 20260509133957 | 67 | 90 | 0.0 | 1.0 | 0.00 | 0.00 | 0.00 | 26 | 917.3 |
| 20260509133630 | 67 | 90 | 0.0 | 1.0 | 0.00 | 0.00 | 0.00 | 26 | 917.3 |
| 20260509133528 | 66 | 93 | 0.0 | 1.0 | 0.00 | 0.00 | 0.00 | 26 | 917.3 |
| 20260509133421 | 66 | 106 | 0.0 | 1.0 | 0.00 | 0.00 | 0.00 | 26 | 917.3 |
| 20260509133101 | 66 | 112 | 0.0 | 0.0 | 0.00 | 0.00 | 0.00 | 27 | 917.3 |
| 20260509132956 | 66 | 112 | 0.0 | 1.0 | 0.00 | 0.00 | 0.00 | 26 | 917.3 |
| 20260509132847 | 66 | 69 | 0.0 | 1.0 | 0.00 | 0.00 | 0.00 | 26 | 917.3 |
| 20260509132521 | 66 | 69 | 0.0 | 0.0 | 0.00 | 0.00 | 0.00 | 27 | 917.1 |
| 20260509132156 | 66 | 69 | 0.0 | 0.0 | 0.00 | 0.00 | 0.00 | 27 | 917.2 |
| 20260509132049 | 66 | 69 | 0.0 | 0.0 | 0.00 | 0.00 | 0.00 | 26 | 917.2 |
| 20260509131943 | 66 | 69 | 0.0 | 1.0 | 0.00 | 0.00 | 0.00 | 26 | 917.1 |
| 20260509131840 | 66 | 69 | 0.0 | 1.0 | 0.00 | 0.00 | 0.00 | 26 | 917.1 |
| 20260509131738 | 66 | 69 | 0.0 | 1.0 | 0.00 | 0.00 | 0.00 | 26 | 917.1 |
| 20260509131633 | 66 | 69 | 0.0 | 0.0 | 0.00 | 0.00 | 0.00 | 26 | 917.1 |
| 20260509131528 | 66 | 69 | 0.0 | 0.0 | 0.00 | 0.00 | 0.00 | 26 | 917.0 |
| 20260509131203 | 66 | 69 | 0.0 | 1.0 | 0.00 | 0.00 | 0.00 | 26 | 917.0 |
| 20260509131101 | 66 | 77 | 0.0 | 1.0 | 0.00 | 0.00 | 0.00 | 26 | 916.9 |
| 20260509130956 | 66 | 73 | 0.0 | 1.0 | 0.00 | 0.00 | 0.00 | 26 | 917.0 |
| 20260509130848 | 66 | 54 | 0.0 | 1.0 | 0.00 | 0.00 | 0.00 | 26 | 917.0 |
| 20260509130740 | 66 | 54 | 0.0 | 1.0 | 0.00 | 0.00 | 0.00 | 26 | 916.9 |